Wetterdaten: Dienstag, 17.12.2013
Datum Zeit Temp. Aussen +5cm Feuchte Auss Luftdruck Regen Sonnenschein Regendauer UV Solar Windben
17.12.2013 00:00 6,5 C 5,0 C 81 % 1023,2 hPa 0,0 l/m 0 min 0 min 0,0 UV-I 0 W/m 7,7 km/h (2 Bft)
17.12.2013 00:02 6,5 C 5,0 C 81 % 1023,2 hPa 0,0 l/m 0 min 0 min 0,0 UV-I 0 W/m 10,3 km/h (2 Bft)
17.12.2013 00:06 6,5 C 5,0 C 81 % 1023,3 hPa 0,0 l/m 0 min 0 min 0,0 UV-I 0 W/m 10,3 km/h (2 Bft)
17.12.2013 00:08 6,5 C 5,0 C 81 % 1023,3 hPa 0,0 l/m 0 min 0 min 0,0 UV-I 0 W/m 10,3 km/h (2 Bft)
17.12.2013 00:10 6,5 C 5,0 C 81 % 1023,2 hPa 0,0 l/m 0 min 0 min 0,0 UV-I 0 W/m 12,9 km/h (3 Bft)
17.12.2013 00:12 6,5 C 5,0 C 81 % 1023,2 hPa 0,0 l/m 0 min 0 min 0,0 UV-I 0 W/m 18,0 km/h (3 Bft)
17.12.2013 00:14 6,5 C 5,0 C 81 % 1023,3 hPa 0,0 l/m 0 min 0 min 0,0 UV-I 0 W/m 12,9 km/h (3 Bft)
17.12.2013 00:16 6,5 C 5,0 C 81 % 1023,2 hPa 0,0 l/m 0 min 0 min 0,0 UV-I 0 W/m 7,7 km/h (2 Bft)
17.12.2013 00:18 6,4 C 5,0 C 81 % 1023,2 hPa 0,0 l/m 0 min 0 min 0,0 UV-I 0 W/m 10,3 km/h (2 Bft)
17.12.2013 00:20 6,4 C 5,0 C 81 % 1023,2 hPa 0,0 l/m 0 min 0 min 0,0 UV-I 0 W/m 7,7 km/h (2 Bft)
17.12.2013 00:22 6,4 C 5,0 C 81 % 1023,2 hPa 0,0 l/m 0 min 0 min 0,0 UV-I 0 W/m 12,9 km/h (3 Bft)
17.12.2013 00:24 6,4 C 5,0 C 81 % 1023,2 hPa 0,0 l/m 0 min 0 min 0,0 UV-I 0 W/m 5,1 km/h (1 Bft)
17.12.2013 00:26 6,4 C 5,0 C 81 % 1023,2 hPa 0,0 l/m 0 min 0 min 0,0 UV-I 0 W/m 15,4 km/h (3 Bft)
17.12.2013 00:28 6,4 C 5,0 C 81 % 1023,1 hPa 0,0 l/m 0 min 0 min 0,0 UV-I 0 W/m 15,4 km/h (3 Bft)
17.12.2013 00:30 6,4 C 5,0 C 81 % 1023,1 hPa 0,0 l/m 0 min 0 min 0,0 UV-I 0 W/m 5,1 km/h (1 Bft)
17.12.2013 00:32 6,4 C 5,0 C 81 % 1023,1 hPa 0,0 l/m 0 min 0 min 0,0 UV-I 0 W/m 2,6 km/h (1 Bft)
17.12.2013 00:34 6,4 C 5,0 C 81 % 1023,1 hPa 0,0 l/m 0 min 0 min 0,0 UV-I 0 W/m 0,0 km/h (0 Bft)
17.12.2013 00:36 6,4 C 5,0 C 81 % 1023,1 hPa 0,0 l/m 0 min 0 min 0,0 UV-I 0 W/m 15,4 km/h (3 Bft)
17.12.2013 00:38 6,4 C 5,0 C 81 % 1023,1 hPa 0,0 l/m 0 min 0 min 0,0 UV-I 0 W/m 10,3 km/h (2 Bft)
17.12.2013 00:40 6,4 C 4,4 C 81 % 1023,1 hPa 0,0 l/m 0 min 0 min 0,0 UV-I 0 W/m 10,3 km/h (2 Bft)
17.12.2013 00:42 6,4 C 4,4 C 81 % 1023,0 hPa 0,0 l/m 0 min 0 min 0,0 UV-I 0 W/m 12,9 km/h (3 Bft)
17.12.2013 00:44 6,4 C 4,4 C 81 % 1023,0 hPa 0,0 l/m 0 min 0 min 0,0 UV-I 0 W/m 12,9 km/h (3 Bft)
17.12.2013 00:46 6,4 C 4,4 C 81 % 1023,0 hPa 0,0 l/m 0 min 0 min 0,0 UV-I 0 W/m 12,9 km/h (3 Bft)
17.12.2013 00:48 6,3 C 4,4 C 81 % 1023,1 hPa 0,0 l/m 0 min 0 min 0,0 UV-I 0 W/m 12,9 km/h (3 Bft)
17.12.2013 00:50 6,3 C 3,9 C 81 % 1023,1 hPa 0,0 l/m 0 min 0 min 0,0 UV-I 0 W/m 5,1 km/h (1 Bft)
17.12.2013 00:52 6,3 C 3,9 C 81 % 1023,1 hPa 0,0 l/m 0 min 0 min 0,0 UV-I 0 W/m 7,7 km/h (2 Bft)
17.12.2013 00:54 6,2 C 3,9 C 81 % 1023,1 hPa 0,0 l/m 0 min 0 min 0,0 UV-I 0 W/m 0,0 km/h (0 Bft)
17.12.2013 00:56 6,2 C 3,9 C 81 % 1023,2 hPa 0,0 l/m 0 min 0 min 0,0 UV-I 0 W/m 10,3 km/h (2 Bft)
17.12.2013 00:58 6,2 C 3,9 C 81 % 1023,1 hPa 0,0 l/m 0 min 0 min 0,0 UV-I 0 W/m 0,0 km/h (0 Bft)
17.12.2013 01:00 6,1 C 3,9 C 81 % 1023,1 hPa 0,0 l/m 0 min 0 min 0,0 UV-I 0 W/m 12,9 km/h (3 Bft)
17.12.2013 01:02 6,1 C 3,9 C 81 % 1023,1 hPa 0,0 l/m 0 min 0 min 0,0 UV-I 0 W/m 12,9 km/h (3 Bft)
17.12.2013 01:04 6,0 C 3,9 C 81 % 1023,1 hPa 0,0 l/m 0 min 0 min 0,0 UV-I 0 W/m 15,4 km/h (3 Bft)
17.12.2013 01:06 5,9 C 3,9 C 81 % 1023,1 hPa 0,0 l/m 0 min 0 min 0,0 UV-I 0 W/m 18,0 km/h (3 Bft)
17.12.2013 01:08 5,9 C 3,9 C 81 % 1023,1 hPa 0,0 l/m 0 min 0 min 0,0 UV-I 0 W/m 15,4 km/h (3 Bft)
17.12.2013 01:10 5,8 C 3,9 C 81 % 1023,2 hPa 0,0 l/m 0 min 0 min 0,0 UV-I 0 W/m 12,9 km/h (3 Bft)
17.12.2013 01:12 5,8 C 3,9 C 81 % 1023,1 hPa 0,0 l/m 0 min 0 min 0,0 UV-I 0 W/m 7,7 km/h (2 Bft)
17.12.2013 01:14 5,8 C 3,9 C 81 % 1023,2 hPa 0,0 l/m 0 min 0 min 0,0 UV-I 0 W/m 10,3 km/h (2 Bft)
17.12.2013 01:16 5,7 C 3,9 C 81 % 1023,1 hPa 0,0 l/m 0 min 0 min 0,0 UV-I 0 W/m 10,3 km/h (2 Bft)
17.12.2013 01:18 5,7 C 3,3 C 82 % 1023,1 hPa 0,0 l/m 0 min 0 min 0,0 UV-I 0 W/m 7,7 km/h (2 Bft)
17.12.2013 01:20 5,7 C 3,3 C 82 % 1023,1 hPa 0,0 l/m 0 min 0 min 0,0 UV-I 0 W/m 7,7 km/h (2 Bft)
17.12.2013 01:22 5,6 C 3,3 C 82 % 1023,0 hPa 0,0 l/m 0 min 0 min 0,0 UV-I 0 W/m 10,3 km/h (2 Bft)
17.12.2013 01:24 5,6 C 3,3 C 82 % 1023,0 hPa 0,0 l/m 0 min 0 min 0,0 UV-I 0 W/m 10,3 km/h (2 Bft)
17.12.2013 01:26 5,6 C 3,3 C 82 % 1023,0 hPa 0,0 l/m 0 min 0 min 0,0 UV-I 0 W/m 12,9 km/h (3 Bft)
17.12.2013 01:28 5,5 C 3,3 C 82 % 1023,0 hPa 0,0 l/m 0 min 0 min 0,0 UV-I 0 W/m 12,9 km/h (3 Bft)
17.12.2013 01:30 5,5 C 3,3 C 82 % 1022,9 hPa 0,0 l/m 0 min 0 min 0,0 UV-I 0 W/m 7,7 km/h (2 Bft)
17.12.2013 01:32 5,4 C 3,3 C 82 % 1022,9 hPa 0,0 l/m 0 min 0 min 0,0 UV-I 0 W/m 15,4 km/h (3 Bft)
17.12.2013 01:34 5,4 C 3,3 C 82 % 1022,8 hPa 0,0 l/m 0 min 0 min 0,0 UV-I 0 W/m 15,4 km/h (3 Bft)
17.12.2013 01:36 5,4 C 3,3 C 83 % 1022,8 hPa 0,0 l/m 0 min 0 min 0,0 UV-I 0 W/m 12,9 km/h (3 Bft)
17.12.2013 01:38 5,4 C 3,3 C 83 % 1022,7 hPa 0,0 l/m 0 min 0 min 0,0 UV-I 0 W/m 12,9 km/h (3 Bft)
17.12.2013 01:40 5,3 C 3,3 C 83 % 1022,7 hPa 0,0 l/m 0 min 0 min 0,0 UV-I 0 W/m 20,6 km/h (4 Bft)
17.12.2013 01:42 5,3 C 3,3 C 83 % 1022,7 hPa 0,0 l/m 0 min 0 min 0,0 UV-I 0 W/m 15,4 km/h (3 Bft)
17.12.2013 01:44 5,3 C 3,3 C 83 % 1022,6 hPa 0,0 l/m 0 min 0 min 0,0 UV-I 0 W/m 12,9 km/h (3 Bft)
17.12.2013 01:46 5,3 C 3,3 C 83 % 1022,7 hPa 0,0 l/m 0 min 0 min 0,0 UV-I 0 W/m 12,9 km/h (3 Bft)
17.12.2013 01:48 5,2 C 3,3 C 83 % 1022,6 hPa 0,0 l/m 0 min 0 min 0,0 UV-I 0 W/m 18,0 km/h (3 Bft)
17.12.2013 01:50 5,2 C 3,3 C 83 % 1022,6 hPa 0,0 l/m 0 min 0 min 0,0 UV-I 0 W/m 10,3 km/h (2 Bft)
17.12.2013 01:52 5,2 C 3,3 C 83 % 1022,6 hPa 0,0 l/m 0 min 0 min 0,0 UV-I 0 W/m 12,9 km/h (3 Bft)
17.12.2013 01:54 5,2 C 3,3 C 83 % 1022,6 hPa 0,0 l/m 0 min 0 min 0,0 UV-I 0 W/m 18,0 km/h (3 Bft)
17.12.2013 01:56 5,2 C 3,3 C 83 % 1022,5 hPa 0,0 l/m 0 min 0 min 0,0 UV-I 0 W/m 15,4 km/h (3 Bft)
17.12.2013 01:58 5,2 C 3,3 C 83 % 1022,5 hPa 0,0 l/m 0 min 0 min 0,0 UV-I 0 W/m 15,4 km/h (3 Bft)
17.12.2013 02:00 5,2 C 3,3 C 83 % 1022,4 hPa 0,0 l/m 0 min 0 min 0,0 UV-I 0 W/m 15,4 km/h (3 Bft)
17.12.2013 02:02 5,1 C 3,3 C 83 % 1022,4 hPa 0,0 l/m 0 min 0 min 0,0 UV-I 0 W/m 15,4 km/h (3 Bft)
17.12.2013 02:04 5,1 C 3,3 C 84 % 1022,4 hPa 0,0 l/m 0 min 0 min 0,0 UV-I 0 W/m 12,9 km/h (3 Bft)
17.12.2013 02:06 5,1 C 3,3 C 84 % 1022,4 hPa 0,0 l/m 0 min 0 min 0,0 UV-I 0 W/m 12,9 km/h (3 Bft)
17.12.2013 02:08 5,1 C 3,3 C 83 % 1022,5 hPa 0,0 l/m 0 min 0 min 0,0 UV-I 0 W/m 10,3 km/h (2 Bft)
17.12.2013 02:10 5,1 C 3,3 C 83 % 1022,5 hPa 0,0 l/m 0 min 0 min 0,0 UV-I 0 W/m 12,9 km/h (3 Bft)
17.12.2013 02:12 5,1 C 3,3 C 84 % 1022,5 hPa 0,0 l/m 0 min 0 min 0,0 UV-I 0 W/m 12,9 km/h (3 Bft)
17.12.2013 02:14 5,1 C 3,3 C 84 % 1022,5 hPa 0,0 l/m 0 min 0 min 0,0 UV-I 0 W/m 12,9 km/h (3 Bft)
17.12.2013 02:16 5,1 C 3,3 C 84 % 1022,4 hPa 0,0 l/m 0 min 0 min 0,0 UV-I 0 W/m 15,4 km/h (3 Bft)
17.12.2013 02:18 5,1 C 3,3 C 84 % 1022,4 hPa 0,0 l/m 0 min 0 min 0,0 UV-I 0 W/m 12,9 km/h (3 Bft)
17.12.2013 02:20 5,1 C 3,3 C 84 % 1022,4 hPa 0,0 l/m 0 min 0 min 0,0 UV-I 0 W/m 15,4 km/h (3 Bft)
17.12.2013 02:22 5,0 C 3,3 C 84 % 1022,4 hPa 0,0 l/m 0 min 0 min 0,0 UV-I 0 W/m 12,9 km/h (3 Bft)
17.12.2013 02:24 5,0 C 3,3 C 84 % 1022,4 hPa 0,0 l/m 0 min 0 min 0,0 UV-I 0 W/m 18,0 km/h (3 Bft)
17.12.2013 02:26 5,0 C 3,3 C 84 % 1022,4 hPa 0,0 l/m 0 min 0 min 0,0 UV-I 0 W/m 15,4 km/h (3 Bft)
17.12.2013 02:28 5,0 C 3,3 C 84 % 1022,5 hPa 0,0 l/m 0 min 0 min 0,0 UV-I 0 W/m 10,3 km/h (2 Bft)
17.12.2013 02:30 5,0 C 3,3 C 84 % 1022,5 hPa 0,0 l/m 0 min 0 min 0,0 UV-I 0 W/m 15,4 km/h (3 Bft)
17.12.2013 02:32 5,0 C 3,3 C 84 % 1022,5 hPa 0,0 l/m 0 min 0 min 0,0 UV-I 0 W/m 15,4 km/h (3 Bft)
17.12.2013 02:34 4,9 C 3,3 C 84 % 1022,4 hPa 0,0 l/m 0 min 0 min 0,0 UV-I 0 W/m 20,6 km/h (4 Bft)
17.12.2013 02:36 4,9 C 3,3 C 84 % 1022,4 hPa 0,0 l/m 0 min 0 min 0,0 UV-I 0 W/m 7,7 km/h (2 Bft)
17.12.2013 02:38 4,9 C 3,3 C 84 % 1022,4 hPa 0,0 l/m 0 min 0 min 0,0 UV-I 0 W/m 10,3 km/h (2 Bft)
17.12.2013 02:40 4,9 C 3,3 C 84 % 1022,4 hPa 0,0 l/m 0 min 0 min 0,0 UV-I 0 W/m 10,3 km/h (2 Bft)
17.12.2013 02:42 4,9 C 3,3 C 84 % 1022,4 hPa 0,0 l/m 0 min 0 min 0,0 UV-I 0 W/m 10,3 km/h (2 Bft)
17.12.2013 02:44 4,9 C 3,3 C 84 % 1022,3 hPa 0,0 l/m 0 min 0 min 0,0 UV-I 0 W/m 15,4 km/h (3 Bft)
17.12.2013 02:46 4,9 C 3,3 C 84 % 1022,2 hPa 0,0 l/m 0 min 0 min 0,0 UV-I 0 W/m 15,4 km/h (3 Bft)
17.12.2013 02:48 4,9 C 3,3 C 84 % 1022,2 hPa 0,0 l/m 0 min 0 min 0,0 UV-I 0 W/m 10,3 km/h (2 Bft)
17.12.2013 02:50 4,9 C 3,3 C 84 % 1022,3 hPa 0,0 l/m 0 min 0 min 0,0 UV-I 0 W/m 12,9 km/h (3 Bft)
17.12.2013 02:52 4,9 C 3,3 C 84 % 1022,3 hPa 0,0 l/m 0 min 0 min 0,0 UV-I 0 W/m 15,4 km/h (3 Bft)
17.12.2013 02:54 4,9 C 3,3 C 84 % 1022,2 hPa 0,0 l/m 0 min 0 min 0,0 UV-I 0 W/m 15,4 km/h (3 Bft)
17.12.2013 02:56 4,8 C 3,3 C 84 % 1022,3 hPa 0,0 l/m 0 min 0 min 0,0 UV-I 0 W/m 15,4 km/h (3 Bft)
17.12.2013 02:58 4,8 C 3,3 C 84 % 1022,3 hPa 0,0 l/m 0 min 0 min 0,0 UV-I 0 W/m 10,3 km/h (2 Bft)
17.12.2013 03:00 4,8 C 3,3 C 84 % 1022,2 hPa 0,0 l/m 0 min 0 min 0,0 UV-I 0 W/m 10,3 km/h (2 Bft)
17.12.2013 03:02 4,8 C 3,3 C 84 % 1022,3 hPa 0,0 l/m 0 min 0 min 0,0 UV-I 0 W/m 7,7 km/h (2 Bft)
17.12.2013 03:04 4,8 C 2,8 C 84 % 1022,2 hPa 0,0 l/m 0 min 0 min 0,0 UV-I 0 W/m 10,3 km/h (2 Bft)
17.12.2013 03:06 4,8 C 2,8 C 84 % 1022,4 hPa 0,0 l/m 0 min 0 min 0,0 UV-I 0 W/m 10,3 km/h (2 Bft)
17.12.2013 03:08 4,8 C 2,8 C 84 % 1022,3 hPa 0,0 l/m 0 min 0 min 0,0 UV-I 0 W/m 10,3 km/h (2 Bft)
17.12.2013 03:10 4,8 C 2,8 C 84 % 1022,3 hPa 0,0 l/m 0 min 0 min 0,0 UV-I 0 W/m 10,3 km/h (2 Bft)
17.12.2013 03:12 4,8 C 2,8 C 84 % 1022,3 hPa 0,0 l/m 0 min 0 min 0,0 UV-I 0 W/m 12,9 km/h (3 Bft)
17.12.2013 03:14 4,8 C 2,8 C 84 % 1022,3 hPa 0,0 l/m 0 min 0 min 0,0 UV-I 0 W/m 12,9 km/h (3 Bft)
17.12.2013 03:16 4,8 C 3,3 C 84 % 1022,4 hPa 0,0 l/m 0 min 0 min 0,0 UV-I 0 W/m 10,3 km/h (2 Bft)
17.12.2013 03:18 4,8 C 3,3 C 84 % 1022,3 hPa 0,0 l/m 0 min 0 min 0,0 UV-I 0 W/m 12,9 km/h (3 Bft)
17.12.2013 03:20 4,7 C 3,3 C 84 % 1022,4 hPa 0,0 l/m 0 min 0 min 0,0 UV-I 0 W/m 7,7 km/h (2 Bft)
17.12.2013 03:22 4,8 C 3,3 C 84 % 1022,4 hPa 0,0 l/m 0 min 0 min 0,0 UV-I 0 W/m 2,6 km/h (1 Bft)
17.12.2013 03:24 4,8 C 2,8 C 84 % 1022,3 hPa 0,0 l/m 0 min 0 min 0,0 UV-I 0 W/m 0,0 km/h (0 Bft)
17.12.2013 03:26 4,7 C 2,8 C 84 % 1022,3 hPa 0,0 l/m 0 min 0 min 0,0 UV-I 0 W/m 10,3 km/h (2 Bft)
17.12.2013 03:28 4,7 C 2,8 C 84 % 1022,2 hPa 0,0 l/m 0 min 0 min 0,0 UV-I 0 W/m 5,1 km/h (1 Bft)
17.12.2013 03:30 4,7 C 2,8 C 84 % 1022,1 hPa 0,0 l/m 0 min 0 min 0,0 UV-I 0 W/m 5,1 km/h (1 Bft)
17.12.2013 03:32 4,7 C 2,8 C 84 % 1022,2 hPa 0,0 l/m 0 min 0 min 0,0 UV-I 0 W/m 0,0 km/h (0 Bft)
17.12.2013 03:34 4,7 C 2,8 C 85 % 1022,2 hPa 0,0 l/m 0 min 0 min 0,0 UV-I 0 W/m 7,7 km/h (2 Bft)
17.12.2013 03:36 4,7 C 2,8 C 85 % 1022,2 hPa 0,0 l/m 0 min 0 min 0,0 UV-I 0 W/m 5,1 km/h (1 Bft)
17.12.2013 03:38 4,7 C 2,8 C 85 % 1022,1 hPa 0,0 l/m 0 min 0 min 0,0 UV-I 0 W/m 2,6 km/h (1 Bft)
17.12.2013 03:40 4,7 C 2,8 C 85 % 1022,1 hPa 0,0 l/m 0 min 0 min 0,0 UV-I 0 W/m 0,0 km/h (0 Bft)
17.12.2013 03:42 4,7 C 2,8 C 85 % 1022,2 hPa 0,0 l/m 0 min 0 min 0,0 UV-I 0 W/m 7,7 km/h (2 Bft)
17.12.2013 03:44 4,6 C 2,8 C 85 % 1022,2 hPa 0,0 l/m 0 min 0 min 0,0 UV-I 0 W/m 0,0 km/h (0 Bft)
17.12.2013 03:46 4,6 C 2,8 C 85 % 1022,2 hPa 0,0 l/m 0 min 0 min 0,0 UV-I 0 W/m 5,1 km/h (1 Bft)
17.12.2013 03:48 4,6 C 2,8 C 85 % 1022,2 hPa 0,0 l/m 0 min 0 min 0,0 UV-I 0 W/m 0,0 km/h (0 Bft)
17.12.2013 03:50 4,6 C 2,8 C 85 % 1022,3 hPa 0,0 l/m 0 min 0 min 0,0 UV-I 0 W/m 0,0 km/h (0 Bft)
17.12.2013 03:52 4,6 C 2,2 C 84 % 1022,2 hPa 0,0 l/m 0 min 0 min 0,0 UV-I 0 W/m 0,0 km/h (0 Bft)
17.12.2013 03:54 4,6 C 2,2 C 85 % 1022,3 hPa 0,0 l/m 0 min 0 min 0,0 UV-I 0 W/m 5,1 km/h (1 Bft)
17.12.2013 03:56 4,6 C 2,8 C 85 % 1022,3 hPa 0,0 l/m 0 min 0 min 0,0 UV-I 0 W/m 2,6 km/h (1 Bft)
17.12.2013 03:58 4,6 C 2,2 C 85 % 1022,4 hPa 0,0 l/m 0 min 0 min 0,0 UV-I 0 W/m 2,6 km/h (1 Bft)
17.12.2013 04:00 4,5 C 2,2 C 85 % 1022,4 hPa 0,0 l/m 0 min 0 min 0,0 UV-I 0 W/m 7,7 km/h (2 Bft)
17.12.2013 04:02 4,5 C 2,8 C 85 % 1022,4 hPa 0,0 l/m 0 min 0 min 0,0 UV-I 0 W/m 2,6 km/h (1 Bft)
17.12.2013 04:04 4,5 C 2,8 C 85 % 1022,4 hPa 0,0 l/m 0 min 0 min 0,0 UV-I 0 W/m 2,6 km/h (1 Bft)
17.12.2013 04:06 4,5 C 2,8 C 85 % 1022,4 hPa 0,0 l/m 0 min 0 min 0,0 UV-I 0 W/m 0,0 km/h (0 Bft)
17.12.2013 04:08 4,4 C 2,2 C 85 % 1022,4 hPa 0,0 l/m 0 min 0 min 0,0 UV-I 0 W/m 5,1 km/h (1 Bft)
17.12.2013 04:10 4,4 C 2,2 C 85 % 1022,5 hPa 0,0 l/m 0 min 0 min 0,0 UV-I 0 W/m 5,1 km/h (1 Bft)
17.12.2013 04:12 4,4 C 2,2 C 85 % 1022,4 hPa 0,0 l/m 0 min 0 min 0,0 UV-I 0 W/m 12,9 km/h (3 Bft)
17.12.2013 04:14 4,4 C 2,2 C 85 % 1022,3 hPa 0,0 l/m 0 min 0 min 0,0 UV-I 0 W/m 2,6 km/h (1 Bft)
17.12.2013 04:16 4,4 C 2,2 C 85 % 1022,3 hPa 0,0 l/m 0 min 0 min 0,0 UV-I 0 W/m 5,1 km/h (1 Bft)
17.12.2013 04:18 4,4 C 2,2 C 85 % 1022,3 hPa 0,0 l/m 0 min 0 min 0,0 UV-I 0 W/m 5,1 km/h (1 Bft)
17.12.2013 04:20 4,3 C 2,2 C 85 % 1022,3 hPa 0,0 l/m 0 min 0 min 0,0 UV-I 0 W/m 7,7 km/h (2 Bft)
17.12.2013 04:22 4,3 C 2,2 C 85 % 1022,2 hPa 0,0 l/m 0 min 0 min 0,0 UV-I 0 W/m 5,1 km/h (1 Bft)
17.12.2013 04:24 4,3 C 2,2 C 85 % 1022,1 hPa 0,0 l/m 0 min 0 min 0,0 UV-I 0 W/m 12,9 km/h (3 Bft)
17.12.2013 04:26 4,3 C 2,2 C 85 % 1022,2 hPa 0,0 l/m 0 min 0 min 0,0 UV-I 0 W/m 10,3 km/h (2 Bft)
17.12.2013 04:28 4,3 C 2,2 C 85 % 1022,2 hPa 0,0 l/m 0 min 0 min 0,0 UV-I 0 W/m 7,7 km/h (2 Bft)
17.12.2013 04:30 4,3 C 2,2 C 85 % 1022,2 hPa 0,0 l/m 0 min 0 min 0,0 UV-I 0 W/m 10,3 km/h (2 Bft)
17.12.2013 04:32 4,2 C 2,2 C 85 % 1022,2 hPa 0,0 l/m 0 min 0 min 0,0 UV-I 0 W/m 10,3 km/h (2 Bft)
17.12.2013 04:34 4,2 C 2,2 C 85 % 1022,1 hPa 0,0 l/m 0 min 0 min 0,0 UV-I 0 W/m 15,4 km/h (3 Bft)
17.12.2013 04:36 4,2 C 2,2 C 85 % 1022,1 hPa 0,0 l/m 0 min 0 min 0,0 UV-I 0 W/m 12,9 km/h (3 Bft)
17.12.2013 04:38 4,2 C 2,2 C 86 % 1022,1 hPa 0,0 l/m 0 min 0 min 0,0 UV-I 0 W/m 10,3 km/h (2 Bft)
17.12.2013 04:40 4,2 C 2,2 C 86 % 1022,1 hPa 0,0 l/m 0 min 0 min 0,0 UV-I 0 W/m 12,9 km/h (3 Bft)
17.12.2013 04:42 4,2 C 2,2 C 86 % 1022,1 hPa 0,0 l/m 0 min 0 min 0,0 UV-I 0 W/m 10,3 km/h (2 Bft)
17.12.2013 04:44 4,2 C 2,2 C 86 % 1022,1 hPa 0,0 l/m 0 min 0 min 0,0 UV-I 0 W/m 7,7 km/h (2 Bft)
17.12.2013 04:46 4,2 C 2,2 C 86 % 1022,1 hPa 0,0 l/m 0 min 0 min 0,0 UV-I 0 W/m 10,3 km/h (2 Bft)
17.12.2013 04:48 4,2 C 2,2 C 86 % 1022,1 hPa 0,0 l/m 0 min 0 min 0,0 UV-I 0 W/m 10,3 km/h (2 Bft)
17.12.2013 04:50 4,2 C 2,2 C 86 % 1022,1 hPa 0,0 l/m 0 min 0 min 0,0 UV-I 0 W/m 2,6 km/h (1 Bft)
17.12.2013 04:52 4,2 C 2,2 C 86 % 1022,0 hPa 0,0 l/m 0 min 0 min 0,0 UV-I 0 W/m 7,7 km/h (2 Bft)
17.12.2013 04:54 4,2 C 2,2 C 86 % 1022,0 hPa 0,0 l/m 0 min 0 min 0,0 UV-I 0 W/m 12,9 km/h (3 Bft)
17.12.2013 04:56 4,1 C 2,2 C 86 % 1022,0 hPa 0,0 l/m 0 min 0 min 0,0 UV-I 0 W/m 10,3 km/h (2 Bft)
17.12.2013 04:58 4,1 C 2,2 C 86 % 1021,9 hPa 0,0 l/m 0 min 0 min 0,0 UV-I 0 W/m 12,9 km/h (3 Bft)
17.12.2013 05:00 4,1 C 2,2 C 86 % 1022,0 hPa 0,0 l/m 0 min 0 min 0,0 UV-I 0 W/m 12,9 km/h (3 Bft)
17.12.2013 05:02 4,1 C 2,2 C 86 % 1022,0 hPa 0,0 l/m 0 min 0 min 0,0 UV-I 0 W/m 12,9 km/h (3 Bft)
17.12.2013 05:04 4,1 C 2,2 C 86 % 1022,0 hPa 0,0 l/m 0 min 0 min 0,0 UV-I 0 W/m 7,7 km/h (2 Bft)
17.12.2013 05:06 4,1 C 2,2 C 86 % 1022,0 hPa 0,0 l/m 0 min 0 min 0,0 UV-I 0 W/m 10,3 km/h (2 Bft)
17.12.2013 05:08 4,1 C 2,2 C 86 % 1022,0 hPa 0,0 l/m 0 min 0 min 0,0 UV-I 0 W/m 15,4 km/h (3 Bft)
17.12.2013 05:10 4,1 C 2,2 C 86 % 1022,0 hPa 0,0 l/m 0 min 0 min 0,0 UV-I 0 W/m 7,7 km/h (2 Bft)
17.12.2013 05:12 4,0 C 2,2 C 86 % 1022,0 hPa 0,0 l/m 0 min 0 min 0,0 UV-I 0 W/m 0,0 km/h (0 Bft)
17.12.2013 05:14 4,0 C 2,2 C 86 % 1022,0 hPa 0,0 l/m 0 min 0 min 0,0 UV-I 0 W/m 10,3 km/h (2 Bft)
17.12.2013 05:16 4,0 C 2,2 C 86 % 1022,0 hPa 0,0 l/m 0 min 0 min 0,0 UV-I 0 W/m 0,0 km/h (0 Bft)
17.12.2013 05:18 3,9 C 2,2 C 86 % 1022,0 hPa 0,0 l/m 0 min 0 min 0,0 UV-I 0 W/m 7,7 km/h (2 Bft)
17.12.2013 05:20 3,9 C 2,2 C 86 % 1021,9 hPa 0,0 l/m 0 min 0 min 0,0 UV-I 0 W/m 2,6 km/h (1 Bft)
17.12.2013 05:22 3,9 C 2,2 C 86 % 1021,9 hPa 0,0 l/m 0 min 0 min 0,0 UV-I 0 W/m 5,1 km/h (1 Bft)
17.12.2013 05:24 3,9 C 2,2 C 87 % 1022,0 hPa 0,0 l/m 0 min 0 min 0,0 UV-I 0 W/m 2,6 km/h (1 Bft)
17.12.2013 05:26 3,9 C 2,2 C 86 % 1022,0 hPa 0,0 l/m 0 min 0 min 0,0 UV-I 0 W/m 7,7 km/h (2 Bft)
17.12.2013 05:28 3,9 C 2,2 C 86 % 1021,9 hPa 0,0 l/m 0 min 0 min 0,0 UV-I 0 W/m 5,1 km/h (1 Bft)
17.12.2013 05:30 3,9 C 2,2 C 87 % 1021,9 hPa 0,0 l/m 0 min 0 min 0,0 UV-I 0 W/m 5,1 km/h (1 Bft)
17.12.2013 05:32 3,8 C 2,2 C 87 % 1022,0 hPa 0,0 l/m 0 min 0 min 0,0 UV-I 0 W/m 5,1 km/h (1 Bft)
17.12.2013 05:34 3,8 C 2,2 C 87 % 1021,9 hPa 0,0 l/m 0 min 0 min 0,0 UV-I 0 W/m 12,9 km/h (3 Bft)
17.12.2013 05:36 3,8 C 2,2 C 87 % 1021,9 hPa 0,0 l/m 0 min 0 min 0,0 UV-I 0 W/m 12,9 km/h (3 Bft)
17.12.2013 05:38 3,8 C 2,2 C 87 % 1022,0 hPa 0,0 l/m 0 min 0 min 0,0 UV-I 0 W/m 5,1 km/h (1 Bft)
17.12.2013 05:40 3,8 C 2,2 C 87 % 1022,0 hPa 0,0 l/m 0 min 0 min 0,0 UV-I 0 W/m 7,7 km/h (2 Bft)
17.12.2013 05:42 3,8 C 2,2 C 87 % 1021,9 hPa 0,0 l/m 0 min 0 min 0,0 UV-I 0 W/m 10,3 km/h (2 Bft)
17.12.2013 05:44 3,8 C 2,2 C 87 % 1021,9 hPa 0,0 l/m 0 min 0 min 0,0 UV-I 0 W/m 12,9 km/h (3 Bft)
17.12.2013 05:46 3,7 C 2,2 C 87 % 1021,8 hPa 0,0 l/m 0 min 0 min 0,0 UV-I 0 W/m 10,3 km/h (2 Bft)
17.12.2013 05:48 3,7 C 2,2 C 87 % 1021,8 hPa 0,0 l/m 0 min 0 min 0,0 UV-I 0 W/m 12,9 km/h (3 Bft)
17.12.2013 05:50 3,7 C 2,2 C 87 % 1021,9 hPa 0,0 l/m 0 min 0 min 0,0 UV-I 0 W/m 10,3 km/h (2 Bft)
17.12.2013 05:52 3,7 C 2,2 C 87 % 1021,7 hPa 0,0 l/m 0 min 0 min 0,0 UV-I 0 W/m 12,9 km/h (3 Bft)
17.12.2013 05:54 3,7 C 2,2 C 87 % 1021,7 hPa 0,0 l/m 0 min 0 min 0,0 UV-I 0 W/m 10,3 km/h (2 Bft)
17.12.2013 05:56 3,7 C 1,7 C 87 % 1021,7 hPa 0,0 l/m 0 min 0 min 0,0 UV-I 0 W/m 12,9 km/h (3 Bft)
17.12.2013 05:58 3,7 C 1,7 C 87 % 1021,7 hPa 0,0 l/m 0 min 0 min 0,0 UV-I 0 W/m 12,9 km/h (3 Bft)
17.12.2013 06:00 3,7 C 1,7 C 87 % 1021,6 hPa 0,0 l/m 0 min 0 min 0,0 UV-I 0 W/m 7,7 km/h (2 Bft)
17.12.2013 06:02 3,7 C 1,7 C 87 % 1021,6 hPa 0,0 l/m 0 min 0 min 0,0 UV-I 0 W/m 7,7 km/h (2 Bft)
17.12.2013 06:04 3,7 C 1,7 C 87 % 1021,5 hPa 0,0 l/m 0 min 0 min 0,0 UV-I 0 W/m 7,7 km/h (2 Bft)
17.12.2013 06:06 3,7 C 1,7 C 87 % 1021,6 hPa 0,0 l/m 0 min 0 min 0,0 UV-I 0 W/m 10,3 km/h (2 Bft)
17.12.2013 06:08 3,6 C 1,7 C 87 % 1021,6 hPa 0,0 l/m 0 min 0 min 0,0 UV-I 0 W/m 7,7 km/h (2 Bft)
17.12.2013 06:10 3,6 C 1,7 C 87 % 1021,6 hPa 0,0 l/m 0 min 0 min 0,0 UV-I 0 W/m 10,3 km/h (2 Bft)
17.12.2013 06:12 3,6 C 1,7 C 87 % 1021,6 hPa 0,0 l/m 0 min 0 min 0,0 UV-I 0 W/m 10,3 km/h (2 Bft)
17.12.2013 06:14 3,6 C 1,7 C 87 % 1021,6 hPa 0,0 l/m 0 min 0 min 0,0 UV-I 0 W/m 12,9 km/h (3 Bft)
17.12.2013 06:16 3,6 C 1,7 C 87 % 1021,6 hPa 0,0 l/m 0 min 0 min 0,0 UV-I 0 W/m 15,4 km/h (3 Bft)
17.12.2013 06:18 3,6 C 1,7 C 87 % 1021,6 hPa 0,0 l/m 0 min 0 min 0,0 UV-I 0 W/m 7,7 km/h (2 Bft)
17.12.2013 06:20 3,6 C 1,7 C 87 % 1021,6 hPa 0,0 l/m 0 min 0 min 0,0 UV-I 0 W/m 10,3 km/h (2 Bft)
17.12.2013 06:22 3,6 C 1,7 C 87 % 1021,6 hPa 0,0 l/m 0 min 0 min 0,0 UV-I 0 W/m 7,7 km/h (2 Bft)
17.12.2013 06:24 3,6 C 1,7 C 87 % 1021,8 hPa 0,0 l/m 0 min 0 min 0,0 UV-I 0 W/m 0,0 km/h (0 Bft)
17.12.2013 06:26 3,6 C 1,7 C 87 % 1021,8 hPa 0,0 l/m 0 min 0 min 0,0 UV-I 0 W/m 2,6 km/h (1 Bft)
17.12.2013 06:28 3,6 C 1,7 C 87 % 1021,8 hPa 0,0 l/m 0 min 0 min 0,0 UV-I 0 W/m 0,0 km/h (0 Bft)
17.12.2013 06:30 3,6 C 1,7 C 87 % 1021,7 hPa 0,0 l/m 0 min 0 min 0,0 UV-I 0 W/m 0,0 km/h (0 Bft)
17.12.2013 06:32 3,5 C 1,7 C 87 % 1021,8 hPa 0,0 l/m 0 min 0 min 0,0 UV-I 0 W/m 0,0 km/h (0 Bft)
17.12.2013 06:34 3,5 C 1,7 C 87 % 1021,7 hPa 0,0 l/m 0 min 0 min 0,0 UV-I 0 W/m 0,0 km/h (0 Bft)
17.12.2013 06:36 3,5 C 1,7 C 87 % 1021,8 hPa 0,0 l/m 0 min 0 min 0,0 UV-I 0 W/m 0,0 km/h (0 Bft)
17.12.2013 06:38 3,5 C 1,7 C 87 % 1021,8 hPa 0,0 l/m 0 min 0 min 0,0 UV-I 0 W/m 0,0 km/h (0 Bft)
17.12.2013 06:40 3,4 C 1,7 C 87 % 1021,9 hPa 0,0 l/m 0 min 0 min 0,0 UV-I 0 W/m 0,0 km/h (0 Bft)
17.12.2013 06:42 3,4 C 1,7 C 87 % 1021,9 hPa 0,0 l/m 0 min 0 min 0,0 UV-I 0 W/m 0,0 km/h (0 Bft)
17.12.2013 06:44 3,4 C 1,7 C 87 % 1021,8 hPa 0,0 l/m 0 min 0 min 0,0 UV-I 0 W/m 0,0 km/h (0 Bft)
17.12.2013 06:46 3,4 C 1,7 C 87 % 1021,9 hPa 0,0 l/m 0 min 0 min 0,0 UV-I 0 W/m 0,0 km/h (0 Bft)
17.12.2013 06:48 3,4 C 1,7 C 87 % 1021,9 hPa 0,0 l/m 0 min 0 min 0,0 UV-I 0 W/m 7,7 km/h (2 Bft)
17.12.2013 06:50 3,4 C 1,7 C 87 % 1022,0 hPa 0,0 l/m 0 min 0 min 0,0 UV-I 0 W/m 10,3 km/h (2 Bft)
17.12.2013 06:52 3,4 C 1,7 C 87 % 1021,9 hPa 0,0 l/m 0 min 0 min 0,0 UV-I 0 W/m 5,1 km/h (1 Bft)
17.12.2013 06:54 3,4 C 1,7 C 87 % 1021,8 hPa 0,0 l/m 0 min 0 min 0,0 UV-I 0 W/m 7,7 km/h (2 Bft)
17.12.2013 06:56 3,4 C 1,7 C 87 % 1021,9 hPa 0,0 l/m 0 min 0 min 0,0 UV-I 0 W/m 10,3 km/h (2 Bft)
17.12.2013 06:58 3,4 C 1,7 C 87 % 1021,9 hPa 0,0 l/m 0 min 0 min 0,0 UV-I 0 W/m 5,1 km/h (1 Bft)
17.12.2013 07:00 3,4 C 1,7 C 87 % 1022,0 hPa 0,0 l/m 0 min 0 min 0,0 UV-I 0 W/m 0,0 km/h (0 Bft)
17.12.2013 07:02 3,4 C 1,7 C 87 % 1021,9 hPa 0,0 l/m 0 min 0 min 0,0 UV-I 0 W/m 7,7 km/h (2 Bft)
17.12.2013 07:04 3,4 C 1,7 C 87 % 1022,0 hPa 0,0 l/m 0 min 0 min 0,0 UV-I 0 W/m 7,7 km/h (2 Bft)
17.12.2013 07:06 3,4 C 1,7 C 87 % 1022,0 hPa 0,0 l/m 0 min 0 min 0,0 UV-I 0 W/m 7,7 km/h (2 Bft)
17.12.2013 07:08 3,4 C 1,7 C 87 % 1022,0 hPa 0,0 l/m 0 min 0 min 0,0 UV-I 0 W/m 7,7 km/h (2 Bft)
17.12.2013 07:10 3,4 C 1,7 C 87 % 1022,0 hPa 0,0 l/m 0 min 0 min 0,0 UV-I 0 W/m 2,6 km/h (1 Bft)
17.12.2013 07:12 3,4 C 1,7 C 87 % 1022,0 hPa 0,0 l/m 0 min 0 min 0,0 UV-I 0 W/m 0,0 km/h (0 Bft)
17.12.2013 07:14 3,4 C 1,7 C 87 % 1022,0 hPa 0,0 l/m 0 min 0 min 0,0 UV-I 0 W/m 2,6 km/h (1 Bft)
17.12.2013 07:16 3,4 C 1,7 C 87 % 1022,0 hPa 0,0 l/m 0 min 0 min 0,0 UV-I 0 W/m 12,9 km/h (3 Bft)
17.12.2013 07:18 3,4 C 1,7 C 87 % 1022,1 hPa 0,0 l/m 0 min 0 min 0,0 UV-I 0 W/m 7,7 km/h (2 Bft)
17.12.2013 07:20 3,4 C 1,7 C 87 % 1022,1 hPa 0,0 l/m 0 min 0 min 0,0 UV-I 0 W/m 0,0 km/h (0 Bft)
17.12.2013 07:22 3,4 C 1,7 C 87 % 1022,2 hPa 0,0 l/m 0 min 0 min 0,0 UV-I 0 W/m 7,7 km/h (2 Bft)
17.12.2013 07:24 3,4 C 1,7 C 87 % 1022,0 hPa 0,0 l/m 0 min 0 min 0,0 UV-I 0 W/m 7,7 km/h (2 Bft)
17.12.2013 07:26 3,4 C 1,7 C 87 % 1022,2 hPa 0,0 l/m 0 min 0 min 0,0 UV-I 0 W/m 5,1 km/h (1 Bft)
17.12.2013 07:28 3,4 C 1,7 C 87 % 1022,2 hPa 0,0 l/m 0 min 0 min 0,0 UV-I 0 W/m 0,0 km/h (0 Bft)
17.12.2013 07:30 3,4 C 1,7 C 87 % 1022,3 hPa 0,0 l/m 0 min 0 min 0,0 UV-I 0 W/m 5,1 km/h (1 Bft)
17.12.2013 07:32 3,4 C 1,7 C 87 % 1022,3 hPa 0,0 l/m 0 min 0 min 0,0 UV-I 0 W/m 5,1 km/h (1 Bft)
17.12.2013 07:34 3,4 C 1,7 C 87 % 1022,4 hPa 0,0 l/m 0 min 0 min 0,0 UV-I 0 W/m 0,0 km/h (0 Bft)
17.12.2013 07:36 3,4 C 1,7 C 87 % 1022,2 hPa 0,0 l/m 0 min 0 min 0,0 UV-I 0 W/m 2,6 km/h (1 Bft)
17.12.2013 07:38 3,4 C 1,7 C 87 % 1022,3 hPa 0,0 l/m 0 min 0 min 0,0 UV-I 0 W/m 2,6 km/h (1 Bft)
17.12.2013 07:40 3,4 C 1,7 C 87 % 1022,5 hPa 0,0 l/m 0 min 0 min 0,0 UV-I 0 W/m 0,0 km/h (0 Bft)
17.12.2013 07:42 3,4 C 1,7 C 87 % 1022,4 hPa 0,0 l/m 0 min 0 min 0,0 UV-I 0 W/m 2,6 km/h (1 Bft)
17.12.2013 07:44 3,4 C 1,7 C 87 % 1022,4 hPa 0,0 l/m 0 min 0 min 0,0 UV-I 0 W/m 0,0 km/h (0 Bft)
17.12.2013 07:46 3,4 C 1,7 C 87 % 1022,5 hPa 0,0 l/m 0 min 0 min 0,0 UV-I 0 W/m 2,6 km/h (1 Bft)
17.12.2013 07:48 3,4 C 1,7 C 87 % 1022,5 hPa 0,0 l/m 0 min 0 min 0,0 UV-I 0 W/m 0,0 km/h (0 Bft)
17.12.2013 07:50 3,4 C 1,7 C 87 % 1022,5 hPa 0,0 l/m 0 min 0 min 0,0 UV-I 0 W/m 0,0 km/h (0 Bft)
17.12.2013 07:52 3,4 C 1,7 C 87 % 1022,5 hPa 0,0 l/m 0 min 0 min 0,0 UV-I 0 W/m 0,0 km/h (0 Bft)
17.12.2013 07:54 3,4 C 1,7 C 87 % 1022,5 hPa 0,0 l/m 0 min 0 min 0,0 UV-I 0 W/m 2,6 km/h (1 Bft)
17.12.2013 07:56 3,4 C 1,7 C 87 % 1022,5 hPa 0,0 l/m 0 min 0 min 0,0 UV-I 0 W/m 0,0 km/h (0 Bft)
17.12.2013 07:58 3,4 C 1,7 C 87 % 1022,6 hPa 0,0 l/m 0 min 0 min 0,0 UV-I 0 W/m 0,0 km/h (0 Bft)
17.12.2013 08:00 3,4 C 1,7 C 87 % 1022,6 hPa 0,0 l/m 0 min 0 min 0,0 UV-I 0 W/m 0,0 km/h (0 Bft)
17.12.2013 08:02 3,4 C 1,7 C 87 % 1022,6 hPa 0,0 l/m 0 min 0 min 0,0 UV-I 0 W/m 2,6 km/h (1 Bft)
17.12.2013 08:06 3,4 C 1,7 C 87 % 1022,7 hPa 0,0 l/m 0 min 0 min 0,0 UV-I 0 W/m 7,7 km/h (2 Bft)
17.12.2013 08:08 3,4 C 1,7 C 87 % 1022,8 hPa 0,0 l/m 0 min 0 min 0,0 UV-I 0 W/m 0,0 km/h (0 Bft)
17.12.2013 08:10 3,4 C 1,7 C 87 % 1022,8 hPa 0,0 l/m 0 min 0 min 0,0 UV-I 0 W/m 0,0 km/h (0 Bft)
17.12.2013 08:12 3,4 C 1,7 C 87 % 1022,8 hPa 0,0 l/m 0 min 0 min 0,0 UV-I 0 W/m 5,1 km/h (1 Bft)
17.12.2013 08:14 3,4 C 1,7 C 87 % 1022,8 hPa 0,0 l/m 0 min 0 min 0,0 UV-I 0 W/m 2,6 km/h (1 Bft)
17.12.2013 08:16 3,4 C 1,7 C 87 % 1022,8 hPa 0,0 l/m 0 min 0 min 0,0 UV-I 0 W/m 2,6 km/h (1 Bft)
17.12.2013 08:18 3,4 C 1,7 C 87 % 1022,8 hPa 0,0 l/m 0 min 0 min 0,0 UV-I 5 W/m 5,1 km/h (1 Bft)
17.12.2013 08:20 3,4 C 1,7 C 87 % 1022,7 hPa 0,0 l/m 0 min 0 min 0,0 UV-I 5 W/m 10,3 km/h (2 Bft)
17.12.2013 08:22 3,4 C 1,7 C 87 % 1022,7 hPa 0,0 l/m 0 min 0 min 0,0 UV-I 5 W/m 10,3 km/h (2 Bft)
17.12.2013 08:24 3,4 C 1,7 C 87 % 1022,7 hPa 0,0 l/m 0 min 0 min 0,0 UV-I 5 W/m 7,7 km/h (2 Bft)
17.12.2013 08:26 3,4 C 1,7 C 87 % 1022,8 hPa 0,0 l/m 0 min 0 min 0,0 UV-I 5 W/m 5,1 km/h (1 Bft)
17.12.2013 08:28 3,4 C 1,7 C 87 % 1022,8 hPa 0,0 l/m 0 min 0 min 0,0 UV-I 5 W/m 2,6 km/h (1 Bft)
17.12.2013 08:30 3,4 C 1,7 C 87 % 1022,8 hPa 0,0 l/m 0 min 0 min 0,0 UV-I 5 W/m 0,0 km/h (0 Bft)
17.12.2013 08:32 3,4 C 1,7 C 87 % 1022,9 hPa 0,0 l/m 0 min 0 min 0,0 UV-I 5 W/m 0,0 km/h (0 Bft)
17.12.2013 08:34 3,4 C 1,7 C 87 % 1022,8 hPa 0,0 l/m 0 min 0 min 0,0 UV-I 5 W/m 0,0 km/h (0 Bft)
17.12.2013 08:36 3,4 C 1,7 C 87 % 1022,9 hPa 0,0 l/m 0 min 0 min 0,0 UV-I 7 W/m 7,7 km/h (2 Bft)
17.12.2013 08:38 3,4 C 1,7 C 87 % 1022,9 hPa 0,0 l/m 0 min 0 min 0,0 UV-I 7 W/m 7,7 km/h (2 Bft)
17.12.2013 08:40 3,4 C 1,7 C 87 % 1022,9 hPa 0,0 l/m 0 min 0 min 0,0 UV-I 9 W/m 2,6 km/h (1 Bft)
17.12.2013 08:42 3,4 C 1,7 C 87 % 1023,0 hPa 0,0 l/m 0 min 0 min 0,0 UV-I 11 W/m 0,0 km/h (0 Bft)
17.12.2013 08:44 3,4 C 1,7 C 87 % 1023,0 hPa 0,0 l/m 0 min 0 min 0,0 UV-I 11 W/m 0,0 km/h (0 Bft)
17.12.2013 08:46 3,4 C 1,7 C 87 % 1023,0 hPa 0,0 l/m 0 min 0 min 0,0 UV-I 12 W/m 5,1 km/h (1 Bft)
17.12.2013 08:48 3,3 C 1,7 C 88 % 1023,0 hPa 0,0 l/m 0 min 0 min 0,0 UV-I 14 W/m 10,3 km/h (2 Bft)
17.12.2013 08:50 3,4 C 1,7 C 88 % 1023,0 hPa 0,0 l/m 0 min 0 min 0,0 UV-I 16 W/m 7,7 km/h (2 Bft)
17.12.2013 08:52 3,3 C 1,7 C 87 % 1023,1 hPa 0,0 l/m 0 min 0 min 0,0 UV-I 16 W/m 5,1 km/h (1 Bft)
17.12.2013 08:54 3,3 C 1,7 C 87 % 1023,1 hPa 0,0 l/m 0 min 0 min 0,0 UV-I 18 W/m 5,1 km/h (1 Bft)
17.12.2013 08:56 3,3 C 1,7 C 87 % 1023,1 hPa 0,0 l/m 0 min 0 min 0,0 UV-I 18 W/m 10,3 km/h (2 Bft)
17.12.2013 08:58 3,3 C 1,7 C 87 % 1023,1 hPa 0,0 l/m 0 min 0 min 0,0 UV-I 19 W/m 10,3 km/h (2 Bft)
17.12.2013 09:00 3,4 C 1,7 C 88 % 1023,1 hPa 0,0 l/m 0 min 0 min 0,0 UV-I 21 W/m 5,1 km/h (1 Bft)
17.12.2013 09:02 3,4 C 2,2 C 88 % 1023,2 hPa 0,0 l/m 0 min 0 min 0,0 UV-I 23 W/m 7,7 km/h (2 Bft)
17.12.2013 09:06 3,4 C 2,2 C 88 % 1023,2 hPa 0,0 l/m 0 min 0 min 0,0 UV-I 26 W/m 7,7 km/h (2 Bft)
17.12.2013 09:08 3,4 C 2,2 C 88 % 1023,2 hPa 0,0 l/m 0 min 0 min 0,0 UV-I 28 W/m 0,0 km/h (0 Bft)
17.12.2013 09:10 3,4 C 2,2 C 88 % 1023,2 hPa 0,0 l/m 0 min 0 min 0,0 UV-I 30 W/m 0,0 km/h (0 Bft)
17.12.2013 09:12 3,4 C 2,2 C 88 % 1023,2 hPa 0,0 l/m 0 min 0 min 0,0 UV-I 33 W/m 2,6 km/h (1 Bft)
17.12.2013 09:14 3,5 C 2,2 C 88 % 1023,2 hPa 0,0 l/m 0 min 0 min 0,0 UV-I 35 W/m 0,0 km/h (0 Bft)
17.12.2013 09:16 3,5 C 2,2 C 88 % 1023,3 hPa 0,0 l/m 0 min 0 min 0,0 UV-I 37 W/m 7,7 km/h (2 Bft)
17.12.2013 09:18 3,5 C 2,2 C 88 % 1023,3 hPa 0,0 l/m 0 min 0 min 0,0 UV-I 40 W/m 7,7 km/h (2 Bft)
17.12.2013 09:20 3,5 C 2,2 C 88 % 1023,3 hPa 0,0 l/m 0 min 0 min 0,0 UV-I 42 W/m 7,7 km/h (2 Bft)
17.12.2013 09:22 3,5 C 2,2 C 88 % 1023,4 hPa 0,0 l/m 0 min 0 min 0,0 UV-I 46 W/m 2,6 km/h (1 Bft)
17.12.2013 09:24 3,6 C 2,2 C 88 % 1023,3 hPa 0,0 l/m 0 min 0 min 0,0 UV-I 47 W/m 0,0 km/h (0 Bft)
17.12.2013 09:26 3,6 C 2,2 C 88 % 1023,4 hPa 0,0 l/m 0 min 0 min 0,0 UV-I 49 W/m 0,0 km/h (0 Bft)
17.12.2013 09:28 3,6 C 2,2 C 88 % 1023,4 hPa 0,0 l/m 0 min 0 min 0,0 UV-I 51 W/m 5,1 km/h (1 Bft)
17.12.2013 09:30 3,6 C 2,8 C 88 % 1023,4 hPa 0,0 l/m 0 min 0 min 0,0 UV-I 53 W/m 7,7 km/h (2 Bft)
17.12.2013 09:32 3,7 C 2,8 C 88 % 1023,4 hPa 0,0 l/m 0 min 0 min 0,0 UV-I 53 W/m 10,3 km/h (2 Bft)
17.12.2013 09:34 3,7 C 2,8 C 88 % 1023,4 hPa 0,0 l/m 0 min 0 min 0,0 UV-I 54 W/m 0,0 km/h (0 Bft)
17.12.2013 09:36 3,7 C 2,8 C 88 % 1023,5 hPa 0,0 l/m 0 min 0 min 0,0 UV-I 56 W/m 5,1 km/h (1 Bft)
17.12.2013 09:38 3,7 C 2,8 C 88 % 1023,5 hPa 0,0 l/m 0 min 0 min 0,0 UV-I 56 W/m 7,7 km/h (2 Bft)
17.12.2013 09:40 3,8 C 2,8 C 88 % 1023,6 hPa 0,0 l/m 0 min 0 min 0,0 UV-I 58 W/m 0,0 km/h (0 Bft)
17.12.2013 09:42 3,8 C 2,8 C 87 % 1023,6 hPa 0,0 l/m 0 min 0 min 0,0 UV-I 58 W/m 2,6 km/h (1 Bft)
17.12.2013 09:44 3,8 C 2,8 C 87 % 1023,7 hPa 0,0 l/m 0 min 0 min 0,0 UV-I 58 W/m 7,7 km/h (2 Bft)
17.12.2013 09:46 3,8 C 2,8 C 88 % 1023,7 hPa 0,0 l/m 0 min 0 min 0,0 UV-I 60 W/m 0,0 km/h (0 Bft)
17.12.2013 09:48 3,9 C 2,8 C 88 % 1023,7 hPa 0,0 l/m 0 min 0 min 0,0 UV-I 51 W/m 0,0 km/h (0 Bft)
17.12.2013 09:50 3,9 C 2,8 C 88 % 1023,8 hPa 0,0 l/m 0 min 0 min 0,0 UV-I 49 W/m 0,0 km/h (0 Bft)
17.12.2013 09:52 3,9 C 2,8 C 88 % 1023,8 hPa 0,0 l/m 0 min 0 min 0,0 UV-I 54 W/m 0,0 km/h (0 Bft)
17.12.2013 09:54 3,9 C 2,8 C 87 % 1023,8 hPa 0,0 l/m 0 min 0 min 0,0 UV-I 58 W/m 0,0 km/h (0 Bft)
17.12.2013 09:56 3,9 C 2,8 C 87 % 1023,8 hPa 0,0 l/m 0 min 0 min 0,0 UV-I 62 W/m 0,0 km/h (0 Bft)
17.12.2013 09:58 4,0 C 2,8 C 87 % 1023,8 hPa 0,0 l/m 0 min 0 min 0,0 UV-I 65 W/m 0,0 km/h (0 Bft)
17.12.2013 10:00 4,1 C 2,8 C 87 % 1023,8 hPa 0,0 l/m 0 min 0 min 0,0 UV-I 65 W/m 0,0 km/h (0 Bft)
17.12.2013 10:02 4,1 C 3,3 C 87 % 1023,8 hPa 0,0 l/m 0 min 0 min 0,0 UV-I 67 W/m 0,0 km/h (0 Bft)
17.12.2013 10:06 4,3 C 3,3 C 87 % 1023,9 hPa 0,0 l/m 0 min 0 min 0,0 UV-I 67 W/m 2,6 km/h (1 Bft)
17.12.2013 10:08 4,3 C 3,3 C 87 % 1023,9 hPa 0,0 l/m 0 min 0 min 0,0 UV-I 72 W/m 0,0 km/h (0 Bft)
17.12.2013 10:10 4,4 C 3,3 C 87 % 1024,0 hPa 0,0 l/m 0 min 0 min 0,0 UV-I 74 W/m 0,0 km/h (0 Bft)
17.12.2013 10:12 4,4 C 3,3 C 87 % 1024,0 hPa 0,0 l/m 0 min 0 min 0,0 UV-I 74 W/m 0,0 km/h (0 Bft)
17.12.2013 10:14 4,6 C 3,9 C 87 % 1024,1 hPa 0,0 l/m 0 min 0 min 0,0 UV-I 74 W/m 0,0 km/h (0 Bft)
17.12.2013 10:16 4,6 C 3,9 C 87 % 1024,1 hPa 0,0 l/m 0 min 0 min 0,0 UV-I 70 W/m 0,0 km/h (0 Bft)
17.12.2013 10:18 4,7 C 3,9 C 86 % 1024,1 hPa 0,0 l/m 0 min 0 min 0,0 UV-I 69 W/m 0,0 km/h (0 Bft)
17.12.2013 10:20 4,8 C 3,9 C 87 % 1024,1 hPa 0,0 l/m 0 min 0 min 0,0 UV-I 70 W/m 7,7 km/h (2 Bft)
17.12.2013 10:22 4,8 C 3,9 C 86 % 1024,1 hPa 0,0 l/m 0 min 0 min 0,0 UV-I 69 W/m 2,6 km/h (1 Bft)
17.12.2013 10:24 4,9 C 4,4 C 86 % 1024,1 hPa 0,0 l/m 0 min 0 min 0,0 UV-I 60 W/m 7,7 km/h (2 Bft)
17.12.2013 10:26 5,0 C 4,4 C 86 % 1024,0 hPa 0,0 l/m 0 min 0 min 0,0 UV-I 54 W/m 7,7 km/h (2 Bft)
17.12.2013 10:28 5,1 C 4,4 C 86 % 1024,0 hPa 0,0 l/m 0 min 0 min 0,0 UV-I 69 W/m 0,0 km/h (0 Bft)
17.12.2013 10:30 5,1 C 4,4 C 86 % 1024,1 hPa 0,0 l/m 0 min 0 min 0,0 UV-I 69 W/m 7,7 km/h (2 Bft)
17.12.2013 10:32 5,2 C 4,4 C 86 % 1024,1 hPa 0,0 l/m 0 min 0 min 0,0 UV-I 69 W/m 7,7 km/h (2 Bft)
17.12.2013 10:34 5,2 C 4,4 C 86 % 1024,1 hPa 0,0 l/m 0 min 0 min 0,0 UV-I 81 W/m 5,1 km/h (1 Bft)
17.12.2013 10:36 5,3 C 4,4 C 86 % 1024,2 hPa 0,0 l/m 0 min 0 min 0,0 UV-I 81 W/m 5,1 km/h (1 Bft)
17.12.2013 10:38 5,3 C 4,4 C 85 % 1024,2 hPa 0,0 l/m 0 min 0 min 0,0 UV-I 90 W/m 7,7 km/h (2 Bft)
17.12.2013 10:40 5,3 C 5,0 C 85 % 1024,2 hPa 0,0 l/m 0 min 0 min 0,0 UV-I 88 W/m 0,0 km/h (0 Bft)
17.12.2013 10:42 5,4 C 5,0 C 85 % 1024,2 hPa 0,0 l/m 0 min 0 min 0,0 UV-I 84 W/m 5,1 km/h (1 Bft)
17.12.2013 10:44 5,5 C 5,0 C 85 % 1024,2 hPa 0,0 l/m 0 min 0 min 0,0 UV-I 77 W/m 2,6 km/h (1 Bft)
17.12.2013 10:46 5,6 C 5,0 C 85 % 1024,2 hPa 0,0 l/m 0 min 0 min 0,0 UV-I 79 W/m 0,0 km/h (0 Bft)
17.12.2013 10:48 5,7 C 5,0 C 85 % 1024,2 hPa 0,0 l/m 0 min 0 min 0,0 UV-I 84 W/m 5,1 km/h (1 Bft)
17.12.2013 10:50 5,8 C 5,0 C 86 % 1024,2 hPa 0,0 l/m 0 min 0 min 0,0 UV-I 81 W/m 0,0 km/h (0 Bft)
17.12.2013 10:52 5,8 C 5,0 C 85 % 1024,2 hPa 0,0 l/m 0 min 0 min 0,0 UV-I 69 W/m 7,7 km/h (2 Bft)
17.12.2013 10:54 5,8 C 5,0 C 85 % 1024,1 hPa 0,0 l/m 0 min 0 min 0,0 UV-I 65 W/m 12,9 km/h (3 Bft)
17.12.2013 10:56 5,9 C 5,6 C 85 % 1024,2 hPa 0,0 l/m 0 min 0 min 0,0 UV-I 69 W/m 5,1 km/h (1 Bft)
17.12.2013 10:58 5,9 C 5,6 C 85 % 1024,2 hPa 0,0 l/m 0 min 0 min 0,0 UV-I 77 W/m 10,3 km/h (2 Bft)
17.12.2013 11:00 5,9 C 5,6 C 84 % 1024,1 hPa 0,0 l/m 0 min 0 min 0,0 UV-I 81 W/m 5,1 km/h (1 Bft)
17.12.2013 11:02 6,0 C 5,6 C 84 % 1024,1 hPa 0,0 l/m 0 min 0 min 0,0 UV-I 84 W/m 10,3 km/h (2 Bft)
17.12.2013 11:06 6,1 C 5,6 C 84 % 1024,2 hPa 0,0 l/m 0 min 0 min 0,0 UV-I 91 W/m 7,7 km/h (2 Bft)
17.12.2013 11:08 6,1 C 5,6 C 84 % 1024,2 hPa 0,0 l/m 0 min 0 min 0,0 UV-I 107 W/m 2,6 km/h (1 Bft)
17.12.2013 11:10 6,1 C 5,6 C 84 % 1024,2 hPa 0,0 l/m 0 min 0 min 0,0 UV-I 123 W/m 7,7 km/h (2 Bft)
17.12.2013 11:12 6,2 C 5,6 C 84 % 1024,2 hPa 0,0 l/m 2 min 0 min 0,0 UV-I 141 W/m 5,1 km/h (1 Bft)
17.12.2013 11:14 6,3 C 5,6 C 84 % 1024,2 hPa 0,0 l/m 2 min 0 min 0,0 UV-I 148 W/m 5,1 km/h (1 Bft)
17.12.2013 11:16 6,4 C 6,1 C 84 % 1024,2 hPa 0,0 l/m 0 min 0 min 0,0 UV-I 121 W/m 0,0 km/h (0 Bft)
17.12.2013 11:18 6,5 C 6,1 C 85 % 1024,2 hPa 0,0 l/m 0 min 0 min 0,0 UV-I 111 W/m 0,0 km/h (0 Bft)
17.12.2013 11:20 6,6 C 6,1 C 84 % 1024,2 hPa 0,0 l/m 0 min 0 min 0,0 UV-I 91 W/m 7,7 km/h (2 Bft)
17.12.2013 11:22 6,6 C 6,1 C 84 % 1024,1 hPa 0,0 l/m 0 min 0 min 0,0 UV-I 84 W/m 7,7 km/h (2 Bft)
17.12.2013 11:24 6,7 C 6,1 C 83 % 1024,1 hPa 0,0 l/m 0 min 0 min 0,0 UV-I 81 W/m 5,1 km/h (1 Bft)
17.12.2013 11:26 6,7 C 6,1 C 83 % 1024,1 hPa 0,0 l/m 0 min 0 min 0,0 UV-I 70 W/m 0,0 km/h (0 Bft)
17.12.2013 11:28 6,7 C 6,1 C 83 % 1024,1 hPa 0,0 l/m 0 min 0 min 0,0 UV-I 63 W/m 0,0 km/h (0 Bft)
17.12.2013 11:30 6,7 C 6,1 C 83 % 1024,1 hPa 0,0 l/m 0 min 0 min 0,0 UV-I 62 W/m 0,0 km/h (0 Bft)
17.12.2013 11:32 6,8 C 6,1 C 83 % 1024,2 hPa 0,0 l/m 0 min 0 min 0,0 UV-I 60 W/m 0,0 km/h (0 Bft)
17.12.2013 11:34 6,8 C 6,1 C 83 % 1024,1 hPa 0,0 l/m 0 min 0 min 0,0 UV-I 58 W/m 5,1 km/h (1 Bft)
17.12.2013 11:36 6,8 C 6,1 C 83 % 1024,2 hPa 0,0 l/m 0 min 0 min 0,0 UV-I 58 W/m 0,0 km/h (0 Bft)
17.12.2013 11:38 6,8 C 6,1 C 83 % 1024,1 hPa 0,0 l/m 0 min 0 min 0,0 UV-I 62 W/m 5,1 km/h (1 Bft)
17.12.2013 11:40 6,9 C 6,1 C 83 % 1024,0 hPa 0,0 l/m 0 min 0 min 0,0 UV-I 63 W/m 5,1 km/h (1 Bft)
17.12.2013 11:42 6,9 C 6,1 C 83 % 1024,0 hPa 0,0 l/m 0 min 0 min 0,0 UV-I 67 W/m 2,6 km/h (1 Bft)
17.12.2013 11:44 6,9 C 6,1 C 83 % 1024,0 hPa 0,0 l/m 0 min 0 min 0,0 UV-I 67 W/m 7,7 km/h (2 Bft)
17.12.2013 11:46 7,0 C 6,1 C 83 % 1024,1 hPa 0,0 l/m 0 min 0 min 0,0 UV-I 67 W/m 0,0 km/h (0 Bft)
17.12.2013 11:48 7,0 C 6,1 C 84 % 1024,0 hPa 0,0 l/m 0 min 0 min 0,0 UV-I 69 W/m 7,7 km/h (2 Bft)
17.12.2013 11:50 7,1 C 6,1 C 83 % 1024,0 hPa 0,0 l/m 0 min 0 min 0,0 UV-I 77 W/m 5,1 km/h (1 Bft)
17.12.2013 11:52 7,1 C 6,1 C 83 % 1024,0 hPa 0,0 l/m 0 min 0 min 0,0 UV-I 77 W/m 7,7 km/h (2 Bft)
17.12.2013 11:54 7,1 C 6,1 C 83 % 1024,0 hPa 0,0 l/m 0 min 0 min 0,0 UV-I 81 W/m 0,0 km/h (0 Bft)
17.12.2013 11:56 7,2 C 6,7 C 83 % 1023,9 hPa 0,0 l/m 0 min 0 min 0,0 UV-I 88 W/m 0,0 km/h (0 Bft)
17.12.2013 11:58 7,3 C 6,7 C 83 % 1023,9 hPa 0,0 l/m 0 min 0 min 0,0 UV-I 93 W/m 0,0 km/h (0 Bft)
17.12.2013 12:00 7,3 C 6,7 C 83 % 1023,9 hPa 0,0 l/m 0 min 0 min 0,0 UV-I 93 W/m 0,0 km/h (0 Bft)
17.12.2013 12:02 7,4 C 6,7 C 82 % 1023,9 hPa 0,0 l/m 0 min 0 min 0,0 UV-I 100 W/m 0,0 km/h (0 Bft)
17.12.2013 12:06 7,5 C 6,7 C 83 % 1023,7 hPa 0,0 l/m 0 min 0 min 0,0 UV-I 93 W/m 0,0 km/h (0 Bft)
17.12.2013 12:08 7,6 C 6,7 C 83 % 1023,8 hPa 0,0 l/m 0 min 0 min 0,0 UV-I 97 W/m 0,0 km/h (0 Bft)
17.12.2013 12:10 7,6 C 6,7 C 83 % 1023,8 hPa 0,0 l/m 0 min 0 min 0,0 UV-I 98 W/m 0,0 km/h (0 Bft)
17.12.2013 12:12 7,7 C 6,7 C 83 % 1023,8 hPa 0,0 l/m 0 min 0 min 0,0 UV-I 105 W/m 0,0 km/h (0 Bft)
17.12.2013 12:14 7,7 C 7,2 C 83 % 1023,8 hPa 0,0 l/m 0 min 0 min 0,0 UV-I 104 W/m 0,0 km/h (0 Bft)
17.12.2013 12:16 7,8 C 7,2 C 83 % 1023,8 hPa 0,0 l/m 0 min 0 min 0,0 UV-I 105 W/m 0,0 km/h (0 Bft)
17.12.2013 12:18 7,9 C 7,2 C 83 % 1023,7 hPa 0,0 l/m 0 min 0 min 0,0 UV-I 102 W/m 0,0 km/h (0 Bft)
17.12.2013 12:20 7,9 C 7,2 C 83 % 1023,8 hPa 0,0 l/m 0 min 0 min 0,0 UV-I 98 W/m 0,0 km/h (0 Bft)
17.12.2013 12:22 8,0 C 7,2 C 83 % 1023,8 hPa 0,0 l/m 0 min 0 min 0,0 UV-I 100 W/m 0,0 km/h (0 Bft)
17.12.2013 12:24 8,1 C 7,2 C 82 % 1023,7 hPa 0,0 l/m 0 min 0 min 0,0 UV-I 97 W/m 0,0 km/h (0 Bft)
17.12.2013 12:26 8,1 C 7,2 C 82 % 1023,7 hPa 0,0 l/m 0 min 0 min 0,0 UV-I 97 W/m 0,0 km/h (0 Bft)
17.12.2013 12:28 8,2 C 7,2 C 85 % 1023,8 hPa 0,0 l/m 0 min 0 min 0,0 UV-I 98 W/m 0,0 km/h (0 Bft)
17.12.2013 12:30 8,2 C 7,2 C 82 % 1023,8 hPa 0,0 l/m 0 min 0 min 0,0 UV-I 93 W/m 0,0 km/h (0 Bft)
17.12.2013 12:32 8,2 C 7,2 C 81 % 1023,7 hPa 0,0 l/m 0 min 0 min 0,0 UV-I 95 W/m 0,0 km/h (0 Bft)
17.12.2013 12:34 8,3 C 7,2 C 81 % 1023,7 hPa 0,0 l/m 0 min 0 min 0,0 UV-I 105 W/m 0,0 km/h (0 Bft)
17.12.2013 12:36 8,3 C 7,2 C 81 % 1023,8 hPa 0,0 l/m 0 min 0 min 0,0 UV-I 90 W/m 0,0 km/h (0 Bft)
17.12.2013 12:38 8,4 C 7,2 C 81 % 1023,8 hPa 0,0 l/m 0 min 0 min 0,0 UV-I 88 W/m 0,0 km/h (0 Bft)
17.12.2013 12:40 8,5 C 7,2 C 82 % 1023,8 hPa 0,0 l/m 0 min 0 min 0,0 UV-I 90 W/m 0,0 km/h (0 Bft)
17.12.2013 12:42 8,5 C 7,2 C 81 % 1023,8 hPa 0,0 l/m 0 min 0 min 0,0 UV-I 83 W/m 0,0 km/h (0 Bft)
17.12.2013 12:44 8,5 C 7,2 C 82 % 1023,9 hPa 0,0 l/m 0 min 0 min 0,0 UV-I 77 W/m 0,0 km/h (0 Bft)
17.12.2013 12:46 8,6 C 7,2 C 82 % 1023,9 hPa 0,0 l/m 0 min 0 min 0,0 UV-I 76 W/m 0,0 km/h (0 Bft)
17.12.2013 12:48 8,6 C 7,2 C 82 % 1023,9 hPa 0,0 l/m 0 min 0 min 0,0 UV-I 77 W/m 0,0 km/h (0 Bft)
17.12.2013 12:50 8,6 C 7,2 C 82 % 1023,9 hPa 0,0 l/m 0 min 0 min 0,0 UV-I 74 W/m 0,0 km/h (0 Bft)
17.12.2013 12:52 8,7 C 7,2 C 82 % 1023,9 hPa 0,0 l/m 0 min 0 min 0,0 UV-I 72 W/m 7,7 km/h (2 Bft)
17.12.2013 12:54 8,7 C 7,2 C 82 % 1023,9 hPa 0,0 l/m 0 min 0 min 0,0 UV-I 72 W/m 0,0 km/h (0 Bft)
17.12.2013 12:56 8,7 C 7,8 C 82 % 1023,9 hPa 0,0 l/m 0 min 0 min 0,0 UV-I 72 W/m 7,7 km/h (2 Bft)
17.12.2013 12:58 8,8 C 7,8 C 81 % 1023,9 hPa 0,0 l/m 0 min 0 min 0,0 UV-I 65 W/m 0,0 km/h (0 Bft)
17.12.2013 13:00 8,8 C 7,8 C 81 % 1023,9 hPa 0,0 l/m 0 min 0 min 0,0 UV-I 62 W/m 2,6 km/h (1 Bft)
17.12.2013 13:02 8,9 C 7,8 C 81 % 1023,8 hPa 0,0 l/m 0 min 0 min 0,0 UV-I 58 W/m 0,0 km/h (0 Bft)
17.12.2013 13:06 8,9 C 7,8 C 81 % 1023,8 hPa 0,0 l/m 0 min 0 min 0,0 UV-I 62 W/m 0,0 km/h (0 Bft)
17.12.2013 13:08 8,9 C 7,8 C 81 % 1023,9 hPa 0,0 l/m 0 min 0 min 0,0 UV-I 62 W/m 0,0 km/h (0 Bft)
17.12.2013 13:10 8,9 C 7,8 C 81 % 1023,9 hPa 0,0 l/m 0 min 0 min 0,0 UV-I 65 W/m 0,0 km/h (0 Bft)
17.12.2013 13:12 9,0 C 7,8 C 81 % 1023,9 hPa 0,0 l/m 0 min 0 min 0,0 UV-I 67 W/m 0,0 km/h (0 Bft)
17.12.2013 13:14 9,1 C 7,8 C 81 % 1023,9 hPa 0,0 l/m 0 min 0 min 0,0 UV-I 62 W/m 0,0 km/h (0 Bft)
17.12.2013 13:16 9,1 C 7,8 C 81 % 1023,9 hPa 0,0 l/m 0 min 0 min 0,0 UV-I 62 W/m 0,0 km/h (0 Bft)
17.12.2013 13:18 9,2 C 7,8 C 81 % 1023,9 hPa 0,0 l/m 0 min 0 min 0,0 UV-I 53 W/m 2,6 km/h (1 Bft)
17.12.2013 13:20 9,3 C 7,8 C 79 % 1023,9 hPa 0,0 l/m 0 min 0 min 0,0 UV-I 54 W/m 5,1 km/h (1 Bft)
17.12.2013 13:22 9,3 C 7,8 C 79 % 1023,8 hPa 0,0 l/m 0 min 0 min 0,0 UV-I 54 W/m 0,0 km/h (0 Bft)
17.12.2013 13:24 9,4 C 7,8 C 79 % 1023,8 hPa 0,0 l/m 0 min 0 min 0,0 UV-I 67 W/m 0,0 km/h (0 Bft)
17.12.2013 13:26 9,4 C 7,8 C 79 % 1023,8 hPa 0,0 l/m 0 min 0 min 0,0 UV-I 74 W/m 2,6 km/h (1 Bft)
17.12.2013 13:28 9,4 C 7,8 C 79 % 1023,7 hPa 0,0 l/m 0 min 0 min 0,0 UV-I 81 W/m 0,0 km/h (0 Bft)
17.12.2013 13:30 9,5 C 7,8 C 78 % 1023,7 hPa 0,0 l/m 0 min 0 min 0,0 UV-I 76 W/m 0,0 km/h (0 Bft)
17.12.2013 13:32 9,5 C 7,8 C 79 % 1023,7 hPa 0,0 l/m 0 min 0 min 0,0 UV-I 72 W/m 0,0 km/h (0 Bft)
17.12.2013 13:34 9,6 C 8,3 C 78 % 1023,7 hPa 0,0 l/m 0 min 0 min 0,0 UV-I 69 W/m 5,1 km/h (1 Bft)
17.12.2013 13:36 9,6 C 8,3 C 78 % 1023,7 hPa 0,0 l/m 0 min 0 min 0,0 UV-I 65 W/m 2,6 km/h (1 Bft)
17.12.2013 13:38 9,6 C 8,3 C 77 % 1023,7 hPa 0,0 l/m 0 min 0 min 0,0 UV-I 70 W/m 0,0 km/h (0 Bft)
17.12.2013 13:40 9,6 C 8,3 C 78 % 1023,8 hPa 0,0 l/m 0 min 0 min 0,0 UV-I 60 W/m 0,0 km/h (0 Bft)
17.12.2013 13:42 9,6 C 8,3 C 78 % 1023,7 hPa 0,0 l/m 0 min 0 min 0,0 UV-I 63 W/m 0,0 km/h (0 Bft)
17.12.2013 13:44 9,6 C 8,3 C 77 % 1023,7 hPa 0,0 l/m 0 min 0 min 0,0 UV-I 67 W/m 5,1 km/h (1 Bft)
17.12.2013 13:46 9,6 C 8,3 C 77 % 1023,7 hPa 0,0 l/m 0 min 0 min 0,0 UV-I 81 W/m 2,6 km/h (1 Bft)
17.12.2013 13:48 9,7 C 8,3 C 77 % 1023,7 hPa 0,0 l/m 0 min 0 min 0,0 UV-I 95 W/m 0,0 km/h (0 Bft)
17.12.2013 13:50 9,7 C 8,3 C 77 % 1023,6 hPa 0,0 l/m 0 min 0 min 0,0 UV-I 91 W/m 0,0 km/h (0 Bft)
17.12.2013 13:52 9,7 C 8,3 C 77 % 1023,7 hPa 0,0 l/m 0 min 0 min 0,0 UV-I 93 W/m 0,0 km/h (0 Bft)
17.12.2013 13:54 9,7 C 8,3 C 77 % 1023,6 hPa 0,0 l/m 0 min 0 min 0,0 UV-I 81 W/m 0,0 km/h (0 Bft)
17.12.2013 13:56 9,8 C 8,3 C 77 % 1023,6 hPa 0,0 l/m 0 min 0 min 0,0 UV-I 65 W/m 0,0 km/h (0 Bft)
17.12.2013 13:58 9,8 C 8,3 C 77 % 1023,6 hPa 0,0 l/m 0 min 0 min 0,0 UV-I 54 W/m 0,0 km/h (0 Bft)
17.12.2013 14:00 9,8 C 8,3 C 77 % 1023,6 hPa 0,0 l/m 0 min 0 min 0,0 UV-I 49 W/m 0,0 km/h (0 Bft)
17.12.2013 14:02 9,8 C 8,3 C 78 % 1023,6 hPa 0,0 l/m 0 min 0 min 0,0 UV-I 49 W/m 0,0 km/h (0 Bft)
17.12.2013 14:06 9,7 C 7,8 C 78 % 1023,6 hPa 0,0 l/m 0 min 0 min 0,0 UV-I 39 W/m 0,0 km/h (0 Bft)
17.12.2013 14:08 9,7 C 7,8 C 78 % 1023,5 hPa 0,0 l/m 0 min 0 min 0,0 UV-I 39 W/m 0,0 km/h (0 Bft)
17.12.2013 14:10 9,7 C 7,8 C 78 % 1023,6 hPa 0,0 l/m 0 min 0 min 0,0 UV-I 39 W/m 0,0 km/h (0 Bft)
17.12.2013 14:12 9,7 C 7,8 C 77 % 1023,6 hPa 0,0 l/m 0 min 0 min 0,0 UV-I 39 W/m 0,0 km/h (0 Bft)
17.12.2013 14:14 9,7 C 7,8 C 78 % 1023,5 hPa 0,0 l/m 0 min 0 min 0,0 UV-I 40 W/m 0,0 km/h (0 Bft)
17.12.2013 14:16 9,6 C 7,8 C 78 % 1023,6 hPa 0,0 l/m 0 min 0 min 0,0 UV-I 42 W/m 0,0 km/h (0 Bft)
17.12.2013 14:18 9,6 C 7,8 C 78 % 1023,5 hPa 0,0 l/m 0 min 0 min 0,0 UV-I 42 W/m 0,0 km/h (0 Bft)
17.12.2013 14:20 9,6 C 7,8 C 77 % 1023,5 hPa 0,0 l/m 0 min 0 min 0,0 UV-I 39 W/m 0,0 km/h (0 Bft)
17.12.2013 14:22 9,6 C 7,8 C 78 % 1023,5 hPa 0,0 l/m 0 min 0 min 0,0 UV-I 39 W/m 0,0 km/h (0 Bft)
17.12.2013 14:24 9,6 C 7,8 C 79 % 1023,4 hPa 0,0 l/m 0 min 0 min 0,0 UV-I 37 W/m 0,0 km/h (0 Bft)
17.12.2013 14:26 9,6 C 7,8 C 78 % 1023,4 hPa 0,0 l/m 0 min 0 min 0,0 UV-I 35 W/m 0,0 km/h (0 Bft)
17.12.2013 14:28 9,6 C 7,8 C 78 % 1023,4 hPa 0,0 l/m 0 min 0 min 0,0 UV-I 35 W/m 0,0 km/h (0 Bft)
17.12.2013 14:30 9,6 C 7,8 C 78 % 1023,4 hPa 0,0 l/m 0 min 0 min 0,0 UV-I 33 W/m 0,0 km/h (0 Bft)
17.12.2013 14:32 9,6 C 7,8 C 77 % 1023,4 hPa 0,0 l/m 0 min 0 min 0,0 UV-I 32 W/m 0,0 km/h (0 Bft)
17.12.2013 14:34 9,6 C 7,8 C 77 % 1023,4 hPa 0,0 l/m 0 min 0 min 0,0 UV-I 32 W/m 0,0 km/h (0 Bft)
17.12.2013 14:36 9,6 C 7,8 C 77 % 1023,4 hPa 0,0 l/m 0 min 0 min 0,0 UV-I 32 W/m 0,0 km/h (0 Bft)
17.12.2013 14:38 9,6 C 7,8 C 77 % 1023,3 hPa 0,0 l/m 0 min 0 min 0,0 UV-I 33 W/m 0,0 km/h (0 Bft)
17.12.2013 14:40 9,6 C 7,8 C 77 % 1023,3 hPa 0,0 l/m 0 min 0 min 0,0 UV-I 33 W/m 0,0 km/h (0 Bft)
17.12.2013 14:42 9,6 C 7,8 C 77 % 1023,3 hPa 0,0 l/m 0 min 0 min 0,0 UV-I 32 W/m 0,0 km/h (0 Bft)
17.12.2013 14:44 9,6 C 7,8 C 77 % 1023,3 hPa 0,0 l/m 0 min 0 min 0,0 UV-I 32 W/m 0,0 km/h (0 Bft)
17.12.2013 14:46 9,6 C 7,8 C 77 % 1023,2 hPa 0,0 l/m 0 min 0 min 0,0 UV-I 33 W/m 0,0 km/h (0 Bft)
17.12.2013 14:48 9,6 C 7,8 C 77 % 1023,3 hPa 0,0 l/m 0 min 0 min 0,0 UV-I 33 W/m 0,0 km/h (0 Bft)
17.12.2013 14:50 9,6 C 7,8 C 77 % 1023,2 hPa 0,0 l/m 0 min 0 min 0,0 UV-I 33 W/m 0,0 km/h (0 Bft)
17.12.2013 14:52 9,6 C 7,8 C 77 % 1023,2 hPa 0,0 l/m 0 min 0 min 0,0 UV-I 35 W/m 0,0 km/h (0 Bft)
17.12.2013 14:54 9,6 C 7,8 C 77 % 1023,2 hPa 0,0 l/m 0 min 0 min 0,0 UV-I 35 W/m 0,0 km/h (0 Bft)
17.12.2013 14:56 9,6 C 7,8 C 77 % 1023,2 hPa 0,0 l/m 0 min 0 min 0,0 UV-I 32 W/m 0,0 km/h (0 Bft)
17.12.2013 14:58 9,6 C 7,8 C 78 % 1023,3 hPa 0,0 l/m 0 min 0 min 0,0 UV-I 33 W/m 0,0 km/h (0 Bft)
17.12.2013 15:00 9,6 C 7,8 C 78 % 1023,3 hPa 0,0 l/m 0 min 0 min 0,0 UV-I 33 W/m 0,0 km/h (0 Bft)
17.12.2013 15:02 9,5 C 7,2 C 78 % 1023,2 hPa 0,0 l/m 0 min 0 min 0,0 UV-I 32 W/m 0,0 km/h (0 Bft)
17.12.2013 15:06 9,5 C 7,2 C 78 % 1023,3 hPa 0,0 l/m 0 min 0 min 0,0 UV-I 30 W/m 0,0 km/h (0 Bft)
17.12.2013 15:08 9,5 C 7,2 C 78 % 1023,3 hPa 0,0 l/m 0 min 0 min 0,0 UV-I 28 W/m 0,0 km/h (0 Bft)
17.12.2013 15:10 9,5 C 7,2 C 78 % 1023,4 hPa 0,0 l/m 0 min 0 min 0,0 UV-I 28 W/m 0,0 km/h (0 Bft)
17.12.2013 15:12 9,5 C 7,2 C 79 % 1023,3 hPa 0,0 l/m 0 min 0 min 0,0 UV-I 28 W/m 0,0 km/h (0 Bft)
17.12.2013 15:14 9,6 C 7,2 C 79 % 1023,3 hPa 0,0 l/m 0 min 0 min 0,0 UV-I 26 W/m 0,0 km/h (0 Bft)
17.12.2013 15:16 9,5 C 7,2 C 79 % 1023,3 hPa 0,0 l/m 0 min 0 min 0,0 UV-I 26 W/m 0,0 km/h (0 Bft)
17.12.2013 15:18 9,5 C 7,2 C 78 % 1023,3 hPa 0,0 l/m 0 min 0 min 0,0 UV-I 25 W/m 0,0 km/h (0 Bft)
17.12.2013 15:20 9,5 C 7,2 C 78 % 1023,3 hPa 0,0 l/m 0 min 0 min 0,0 UV-I 23 W/m 0,0 km/h (0 Bft)
17.12.2013 15:22 9,5 C 7,2 C 78 % 1023,3 hPa 0,0 l/m 0 min 0 min 0,0 UV-I 23 W/m 0,0 km/h (0 Bft)
17.12.2013 15:24 9,6 C 7,2 C 78 % 1023,3 hPa 0,0 l/m 0 min 0 min 0,0 UV-I 23 W/m 0,0 km/h (0 Bft)
17.12.2013 15:26 9,5 C 7,2 C 78 % 1023,2 hPa 0,0 l/m 0 min 0 min 0,0 UV-I 23 W/m 0,0 km/h (0 Bft)
17.12.2013 15:28 9,6 C 7,2 C 78 % 1023,2 hPa 0,0 l/m 0 min 0 min 0,0 UV-I 21 W/m 0,0 km/h (0 Bft)
17.12.2013 15:30 9,6 C 7,2 C 78 % 1023,3 hPa 0,0 l/m 0 min 0 min 0,0 UV-I 19 W/m 0,0 km/h (0 Bft)
17.12.2013 15:32 9,5 C 7,2 C 78 % 1023,3 hPa 0,0 l/m 0 min 0 min 0,0 UV-I 19 W/m 0,0 km/h (0 Bft)
17.12.2013 15:34 9,5 C 7,2 C 78 % 1023,3 hPa 0,0 l/m 0 min 0 min 0,0 UV-I 19 W/m 0,0 km/h (0 Bft)
17.12.2013 15:36 9,5 C 7,2 C 79 % 1023,3 hPa 0,0 l/m 0 min 0 min 0,0 UV-I 19 W/m 0,0 km/h (0 Bft)
17.12.2013 15:38 9,5 C 7,2 C 79 % 1023,4 hPa 0,0 l/m 0 min 0 min 0,0 UV-I 18 W/m 0,0 km/h (0 Bft)
17.12.2013 15:40 9,5 C 7,2 C 79 % 1023,3 hPa 0,0 l/m 0 min 0 min 0,0 UV-I 18 W/m 0,0 km/h (0 Bft)
17.12.2013 15:42 9,5 C 6,7 C 79 % 1023,3 hPa 0,0 l/m 0 min 0 min 0,0 UV-I 16 W/m 0,0 km/h (0 Bft)
17.12.2013 15:44 9,5 C 6,7 C 79 % 1023,3 hPa 0,0 l/m 0 min 0 min 0,0 UV-I 14 W/m 0,0 km/h (0 Bft)
17.12.2013 15:46 9,5 C 6,7 C 79 % 1023,2 hPa 0,0 l/m 0 min 0 min 0,0 UV-I 12 W/m 0,0 km/h (0 Bft)
17.12.2013 15:48 9,5 C 6,7 C 79 % 1023,2 hPa 0,0 l/m 0 min 0 min 0,0 UV-I 11 W/m 0,0 km/h (0 Bft)
17.12.2013 15:50 9,5 C 6,7 C 79 % 1023,2 hPa 0,0 l/m 0 min 0 min 0,0 UV-I 9 W/m 0,0 km/h (0 Bft)
17.12.2013 15:52 9,4 C 6,7 C 80 % 1023,3 hPa 0,0 l/m 0 min 0 min 0,0 UV-I 9 W/m 0,0 km/h (0 Bft)
17.12.2013 15:54 9,4 C 6,7 C 80 % 1023,3 hPa 0,0 l/m 0 min 0 min 0,0 UV-I 9 W/m 0,0 km/h (0 Bft)
17.12.2013 15:56 9,4 C 6,7 C 80 % 1023,3 hPa 0,0 l/m 0 min 0 min 0,0 UV-I 9 W/m 0,0 km/h (0 Bft)
17.12.2013 15:58 9,4 C 6,7 C 80 % 1023,3 hPa 0,0 l/m 0 min 0 min 0,0 UV-I 9 W/m 0,0 km/h (0 Bft)
17.12.2013 16:00 9,4 C 6,7 C 80 % 1023,2 hPa 0,0 l/m 0 min 0 min 0,0 UV-I 9 W/m 0,0 km/h (0 Bft)
17.12.2013 16:02 9,4 C 6,7 C 80 % 1023,2 hPa 0,0 l/m 0 min 0 min 0,0 UV-I 9 W/m 0,0 km/h (0 Bft)
17.12.2013 16:04 9,3 C 6,7 C 80 % 1023,2 hPa 0,0 l/m 0 min 0 min 0,0 UV-I 9 W/m 0,0 km/h (0 Bft)
17.12.2013 16:06 9,3 C 7,2 C 80 % 1023,2 hPa 0,0 l/m 0 min 0 min 0,0 UV-I 7 W/m 0,0 km/h (0 Bft)
17.12.2013 16:08 9,3 C 7,2 C 80 % 1023,2 hPa 0,0 l/m 0 min 0 min 0,0 UV-I 7 W/m 0,0 km/h (0 Bft)
17.12.2013 16:10 9,3 C 7,2 C 80 % 1023,2 hPa 0,0 l/m 0 min 0 min 0,0 UV-I 5 W/m 0,0 km/h (0 Bft)
17.12.2013 16:12 9,3 C 7,2 C 81 % 1023,2 hPa 0,0 l/m 0 min 0 min 0,0 UV-I 5 W/m 0,0 km/h (0 Bft)
17.12.2013 16:14 9,2 C 7,2 C 81 % 1023,2 hPa 0,0 l/m 0 min 0 min 0,0 UV-I 5 W/m 0,0 km/h (0 Bft)
17.12.2013 16:16 9,2 C 7,2 C 81 % 1023,2 hPa 0,0 l/m 0 min 0 min 0,0 UV-I 5 W/m 0,0 km/h (0 Bft)
17.12.2013 16:18 9,2 C 7,2 C 81 % 1023,2 hPa 0,0 l/m 0 min 0 min 0,0 UV-I 0 W/m 0,0 km/h (0 Bft)
17.12.2013 16:20 9,1 C 7,2 C 81 % 1023,2 hPa 0,0 l/m 0 min 0 min 0,0 UV-I 0 W/m 0,0 km/h (0 Bft)
17.12.2013 16:22 9,1 C 7,2 C 81 % 1023,2 hPa 0,0 l/m 0 min 0 min 0,0 UV-I 0 W/m 0,0 km/h (0 Bft)
17.12.2013 16:24 9,1 C 7,2 C 81 % 1023,2 hPa 0,0 l/m 0 min 0 min 0,0 UV-I 0 W/m 0,0 km/h (0 Bft)
17.12.2013 16:26 9,1 C 7,2 C 81 % 1023,3 hPa 0,0 l/m 0 min 0 min 0,0 UV-I 0 W/m 0,0 km/h (0 Bft)
17.12.2013 16:28 9,0 C 7,2 C 81 % 1023,3 hPa 0,0 l/m 0 min 0 min 0,0 UV-I 0 W/m 0,0 km/h (0 Bft)
17.12.2013 16:30 9,0 C 7,2 C 82 % 1023,2 hPa 0,0 l/m 0 min 0 min 0,0 UV-I 0 W/m 0,0 km/h (0 Bft)
17.12.2013 16:32 8,9 C 6,7 C 82 % 1023,2 hPa 0,0 l/m 0 min 0 min 0,0 UV-I 0 W/m 0,0 km/h (0 Bft)
17.12.2013 16:34 8,9 C 6,7 C 82 % 1023,3 hPa 0,0 l/m 0 min 0 min 0,0 UV-I 0 W/m 0,0 km/h (0 Bft)
17.12.2013 16:36 8,9 C 6,7 C 82 % 1023,2 hPa 0,0 l/m 0 min 0 min 0,0 UV-I 0 W/m 0,0 km/h (0 Bft)
17.12.2013 16:38 8,8 C 6,7 C 82 % 1023,3 hPa 0,0 l/m 0 min 0 min 0,0 UV-I 0 W/m 0,0 km/h (0 Bft)
17.12.2013 16:40 8,8 C 6,7 C 82 % 1023,3 hPa 0,0 l/m 0 min 0 min 0,0 UV-I 0 W/m 0,0 km/h (0 Bft)
17.12.2013 16:42 8,7 C 6,7 C 82 % 1023,3 hPa 0,0 l/m 0 min 0 min 0,0 UV-I 0 W/m 0,0 km/h (0 Bft)
17.12.2013 16:44 8,7 C 6,7 C 82 % 1023,3 hPa 0,0 l/m 0 min 0 min 0,0 UV-I 0 W/m 0,0 km/h (0 Bft)
17.12.2013 16:46 8,7 C 6,7 C 82 % 1023,3 hPa 0,0 l/m 0 min 0 min 0,0 UV-I 0 W/m 0,0 km/h (0 Bft)
17.12.2013 16:48 8,7 C 6,7 C 82 % 1023,3 hPa 0,0 l/m 0 min 0 min 0,0 UV-I 0 W/m 0,0 km/h (0 Bft)
17.12.2013 16:50 8,7 C 6,7 C 82 % 1023,3 hPa 0,0 l/m 0 min 0 min 0,0 UV-I 0 W/m 0,0 km/h (0 Bft)
17.12.2013 16:52 8,6 C 6,7 C 82 % 1023,3 hPa 0,0 l/m 0 min 0 min 0,0 UV-I 0 W/m 0,0 km/h (0 Bft)
17.12.2013 16:54 8,6 C 6,7 C 82 % 1023,2 hPa 0,0 l/m 0 min 0 min 0,0 UV-I 0 W/m 0,0 km/h (0 Bft)
17.12.2013 16:56 8,6 C 6,1 C 82 % 1023,2 hPa 0,0 l/m 0 min 0 min 0,0 UV-I 0 W/m 0,0 km/h (0 Bft)
17.12.2013 16:58 8,6 C 6,1 C 83 % 1023,3 hPa 0,0 l/m 0 min 0 min 0,0 UV-I 0 W/m 0,0 km/h (0 Bft)
17.12.2013 17:00 8,6 C 6,1 C 83 % 1023,3 hPa 0,0 l/m 0 min 0 min 0,0 UV-I 0 W/m 0,0 km/h (0 Bft)
17.12.2013 17:02 8,5 C 6,1 C 83 % 1023,4 hPa 0,0 l/m 0 min 0 min 0,0 UV-I 0 W/m 0,0 km/h (0 Bft)
17.12.2013 17:06 8,4 C 5,6 C 83 % 1023,4 hPa 0,0 l/m 0 min 0 min 0,0 UV-I 0 W/m 0,0 km/h (0 Bft)
17.12.2013 17:08 8,4 C 5,6 C 83 % 1023,3 hPa 0,0 l/m 0 min 0 min 0,0 UV-I 0 W/m 0,0 km/h (0 Bft)
17.12.2013 17:10 8,4 C 5,6 C 83 % 1023,4 hPa 0,0 l/m 0 min 0 min 0,0 UV-I 0 W/m 0,0 km/h (0 Bft)
17.12.2013 17:12 8,4 C 5,6 C 83 % 1023,4 hPa 0,0 l/m 0 min 0 min 0,0 UV-I 0 W/m 0,0 km/h (0 Bft)
17.12.2013 17:14 8,3 C 5,6 C 83 % 1023,4 hPa 0,0 l/m 0 min 0 min 0,0 UV-I 0 W/m 0,0 km/h (0 Bft)
17.12.2013 17:16 8,3 C 5,6 C 83 % 1023,4 hPa 0,0 l/m 0 min 0 min 0,0 UV-I 0 W/m 0,0 km/h (0 Bft)
17.12.2013 17:18 8,2 C 5,6 C 83 % 1023,4 hPa 0,0 l/m 0 min 0 min 0,0 UV-I 0 W/m 0,0 km/h (0 Bft)
17.12.2013 17:20 8,2 C 5,6 C 83 % 1023,4 hPa 0,0 l/m 0 min 0 min 0,0 UV-I 0 W/m 0,0 km/h (0 Bft)
17.12.2013 17:22 8,2 C 5,0 C 83 % 1023,4 hPa 0,0 l/m 0 min 0 min 0,0 UV-I 0 W/m 0,0 km/h (0 Bft)
17.12.2013 17:24 8,2 C 5,0 C 83 % 1023,4 hPa 0,0 l/m 0 min 0 min 0,0 UV-I 0 W/m 0,0 km/h (0 Bft)
17.12.2013 17:26 8,1 C 5,0 C 83 % 1023,4 hPa 0,0 l/m 0 min 0 min 0,0 UV-I 0 W/m 0,0 km/h (0 Bft)
17.12.2013 17:28 8,1 C 5,0 C 83 % 1023,4 hPa 0,0 l/m 0 min 0 min 0,0 UV-I 0 W/m 0,0 km/h (0 Bft)
17.12.2013 17:30 8,0 C 5,0 C 83 % 1023,3 hPa 0,0 l/m 0 min 0 min 0,0 UV-I 0 W/m 0,0 km/h (0 Bft)
17.12.2013 17:32 8,0 C 5,0 C 83 % 1023,4 hPa 0,0 l/m 0 min 0 min 0,0 UV-I 0 W/m 0,0 km/h (0 Bft)
17.12.2013 17:34 7,9 C 5,0 C 83 % 1023,4 hPa 0,0 l/m 0 min 0 min 0,0 UV-I 0 W/m 0,0 km/h (0 Bft)
17.12.2013 17:36 7,9 C 5,0 C 83 % 1023,4 hPa 0,0 l/m 0 min 0 min 0,0 UV-I 0 W/m 0,0 km/h (0 Bft)
17.12.2013 17:38 7,8 C 5,0 C 83 % 1023,4 hPa 0,0 l/m 0 min 0 min 0,0 UV-I 0 W/m 0,0 km/h (0 Bft)
17.12.2013 17:40 7,8 C 5,0 C 83 % 1023,4 hPa 0,0 l/m 0 min 0 min 0,0 UV-I 0 W/m 0,0 km/h (0 Bft)
17.12.2013 17:42 7,8 C 5,0 C 83 % 1023,4 hPa 0,0 l/m 0 min 0 min 0,0 UV-I 0 W/m 0,0 km/h (0 Bft)
17.12.2013 17:44 7,7 C 4,4 C 83 % 1023,4 hPa 0,0 l/m 0 min 0 min 0,0 UV-I 0 W/m 0,0 km/h (0 Bft)
17.12.2013 17:46 7,6 C 4,4 C 83 % 1023,4 hPa 0,0 l/m 0 min 0 min 0,0 UV-I 0 W/m 0,0 km/h (0 Bft)
17.12.2013 17:48 7,6 C 4,4 C 83 % 1023,4 hPa 0,0 l/m 0 min 0 min 0,0 UV-I 0 W/m 0,0 km/h (0 Bft)
17.12.2013 17:50 7,6 C 4,4 C 83 % 1023,5 hPa 0,0 l/m 0 min 0 min 0,0 UV-I 0 W/m 0,0 km/h (0 Bft)
17.12.2013 17:52 7,5 C 4,4 C 83 % 1023,4 hPa 0,0 l/m 0 min 0 min 0,0 UV-I 0 W/m 0,0 km/h (0 Bft)
17.12.2013 17:54 7,4 C 4,4 C 83 % 1023,4 hPa 0,0 l/m 0 min 0 min 0,0 UV-I 0 W/m 0,0 km/h (0 Bft)
17.12.2013 17:56 7,4 C 3,9 C 84 % 1023,4 hPa 0,0 l/m 0 min 0 min 0,0 UV-I 0 W/m 0,0 km/h (0 Bft)
17.12.2013 17:58 7,3 C 3,9 C 84 % 1023,4 hPa 0,0 l/m 0 min 0 min 0,0 UV-I 0 W/m 0,0 km/h (0 Bft)
17.12.2013 18:00 7,2 C 3,9 C 84 % 1023,3 hPa 0,0 l/m 0 min 0 min 0,0 UV-I 0 W/m 0,0 km/h (0 Bft)
17.12.2013 18:02 7,2 C 3,9 C 84 % 1023,4 hPa 0,0 l/m 0 min 0 min 0,0 UV-I 0 W/m 0,0 km/h (0 Bft)
17.12.2013 18:06 7,1 C 3,9 C 84 % 1023,3 hPa 0,0 l/m 0 min 0 min 0,0 UV-I 0 W/m 0,0 km/h (0 Bft)
17.12.2013 18:08 7,0 C 3,9 C 84 % 1023,3 hPa 0,0 l/m 0 min 0 min 0,0 UV-I 0 W/m 0,0 km/h (0 Bft)
17.12.2013 18:10 6,9 C 3,9 C 84 % 1023,3 hPa 0,0 l/m 0 min 0 min 0,0 UV-I 0 W/m 0,0 km/h (0 Bft)
17.12.2013 18:12 6,9 C 3,9 C 84 % 1023,3 hPa 0,0 l/m 0 min 0 min 0,0 UV-I 0 W/m 0,0 km/h (0 Bft)
17.12.2013 18:14 6,8 C 3,9 C 84 % 1023,3 hPa 0,0 l/m 0 min 0 min 0,0 UV-I 0 W/m 0,0 km/h (0 Bft)
17.12.2013 18:16 6,8 C 3,9 C 84 % 1023,3 hPa 0,0 l/m 0 min 0 min 0,0 UV-I 0 W/m 0,0 km/h (0 Bft)
17.12.2013 18:18 6,7 C 3,3 C 84 % 1023,3 hPa 0,0 l/m 0 min 0 min 0,0 UV-I 0 W/m 0,0 km/h (0 Bft)
17.12.2013 18:20 6,7 C 3,3 C 85 % 1023,3 hPa 0,0 l/m 0 min 0 min 0,0 UV-I 0 W/m 0,0 km/h (0 Bft)
17.12.2013 18:22 6,6 C 3,3 C 85 % 1023,2 hPa 0,0 l/m 0 min 0 min 0,0 UV-I 0 W/m 0,0 km/h (0 Bft)
17.12.2013 18:24 6,6 C 3,3 C 85 % 1023,2 hPa 0,0 l/m 0 min 0 min 0,0 UV-I 0 W/m 0,0 km/h (0 Bft)
17.12.2013 18:26 6,6 C 3,3 C 85 % 1023,2 hPa 0,0 l/m 0 min 0 min 0,0 UV-I 0 W/m 0,0 km/h (0 Bft)
17.12.2013 18:28 6,5 C 3,3 C 85 % 1023,1 hPa 0,0 l/m 0 min 0 min 0,0 UV-I 0 W/m 0,0 km/h (0 Bft)
17.12.2013 18:30 6,5 C 3,3 C 85 % 1023,2 hPa 0,0 l/m 0 min 0 min 0,0 UV-I 0 W/m 0,0 km/h (0 Bft)
17.12.2013 18:32 6,4 C 3,3 C 85 % 1023,1 hPa 0,0 l/m 0 min 0 min 0,0 UV-I 0 W/m 0,0 km/h (0 Bft)
17.12.2013 18:34 6,4 C 3,9 C 85 % 1023,0 hPa 0,0 l/m 0 min 0 min 0,0 UV-I 0 W/m 0,0 km/h (0 Bft)
17.12.2013 18:36 6,4 C 3,9 C 85 % 1023,0 hPa 0,0 l/m 0 min 0 min 0,0 UV-I 0 W/m 0,0 km/h (0 Bft)
17.12.2013 18:38 6,3 C 3,3 C 86 % 1023,1 hPa 0,0 l/m 0 min 0 min 0,0 UV-I 0 W/m 0,0 km/h (0 Bft)
17.12.2013 18:40 6,3 C 3,3 C 86 % 1023,0 hPa 0,0 l/m 0 min 0 min 0,0 UV-I 0 W/m 0,0 km/h (0 Bft)
17.12.2013 18:42 6,2 C 3,3 C 86 % 1023,0 hPa 0,0 l/m 0 min 0 min 0,0 UV-I 0 W/m 0,0 km/h (0 Bft)
17.12.2013 18:44 6,2 C 3,3 C 86 % 1023,0 hPa 0,0 l/m 0 min 0 min 0,0 UV-I 0 W/m 0,0 km/h (0 Bft)
17.12.2013 18:46 6,2 C 3,3 C 86 % 1023,0 hPa 0,0 l/m 0 min 0 min 0,0 UV-I 0 W/m 0,0 km/h (0 Bft)
17.12.2013 18:48 6,1 C 3,3 C 86 % 1022,9 hPa 0,0 l/m 0 min 0 min 0,0 UV-I 0 W/m 0,0 km/h (0 Bft)
17.12.2013 18:50 6,1 C 3,3 C 86 % 1023,0 hPa 0,0 l/m 0 min 0 min 0,0 UV-I 0 W/m 0,0 km/h (0 Bft)
17.12.2013 18:52 6,0 C 3,3 C 86 % 1022,9 hPa 0,0 l/m 0 min 0 min 0,0 UV-I 0 W/m 0,0 km/h (0 Bft)
17.12.2013 18:54 6,0 C 3,3 C 86 % 1022,9 hPa 0,0 l/m 0 min 0 min 0,0 UV-I 0 W/m 0,0 km/h (0 Bft)
17.12.2013 18:56 5,9 C 3,3 C 86 % 1022,9 hPa 0,0 l/m 0 min 0 min 0,0 UV-I 0 W/m 0,0 km/h (0 Bft)
17.12.2013 18:58 5,9 C 3,3 C 86 % 1022,9 hPa 0,0 l/m 0 min 0 min 0,0 UV-I 0 W/m 0,0 km/h (0 Bft)
17.12.2013 19:00 5,8 C 3,3 C 86 % 1022,9 hPa 0,0 l/m 0 min 0 min 0,0 UV-I 0 W/m 0,0 km/h (0 Bft)
17.12.2013 19:02 5,8 C 3,3 C 86 % 1022,9 hPa 0,0 l/m 0 min 0 min 0,0 UV-I 0 W/m 0,0 km/h (0 Bft)
17.12.2013 19:06 5,7 C 3,3 C 86 % 1022,9 hPa 0,0 l/m 0 min 0 min 0,0 UV-I 0 W/m 0,0 km/h (0 Bft)
17.12.2013 19:08 5,7 C 2,8 C 86 % 1022,9 hPa 0,0 l/m 0 min 0 min 0,0 UV-I 0 W/m 0,0 km/h (0 Bft)
17.12.2013 19:10 5,7 C 2,8 C 87 % 1022,9 hPa 0,0 l/m 0 min 0 min 0,0 UV-I 0 W/m 0,0 km/h (0 Bft)
17.12.2013 19:12 5,6 C 2,8 C 87 % 1023,0 hPa 0,0 l/m 0 min 0 min 0,0 UV-I 0 W/m 0,0 km/h (0 Bft)
17.12.2013 19:14 5,6 C 2,8 C 87 % 1022,9 hPa 0,0 l/m 0 min 0 min 0,0 UV-I 0 W/m 0,0 km/h (0 Bft)
17.12.2013 19:16 5,5 C 2,8 C 87 % 1023,0 hPa 0,0 l/m 0 min 0 min 0,0 UV-I 0 W/m 0,0 km/h (0 Bft)
17.12.2013 19:18 5,5 C 2,8 C 87 % 1022,9 hPa 0,0 l/m 0 min 0 min 0,0 UV-I 0 W/m 0,0 km/h (0 Bft)
17.12.2013 19:20 5,4 C 2,8 C 87 % 1023,0 hPa 0,0 l/m 0 min 0 min 0,0 UV-I 0 W/m 0,0 km/h (0 Bft)
17.12.2013 19:22 5,4 C 2,8 C 87 % 1023,0 hPa 0,0 l/m 0 min 0 min 0,0 UV-I 0 W/m 0,0 km/h (0 Bft)
17.12.2013 19:24 5,4 C 2,8 C 87 % 1023,0 hPa 0,0 l/m 0 min 0 min 0,0 UV-I 0 W/m 0,0 km/h (0 Bft)
17.12.2013 19:26 5,3 C 2,8 C 87 % 1023,0 hPa 0,0 l/m 0 min 0 min 0,0 UV-I 0 W/m 0,0 km/h (0 Bft)
17.12.2013 19:28 5,3 C 2,8 C 87 % 1023,0 hPa 0,0 l/m 0 min 0 min 0,0 UV-I 0 W/m 0,0 km/h (0 Bft)
17.12.2013 19:30 5,2 C 2,8 C 87 % 1023,0 hPa 0,0 l/m 0 min 0 min 0,0 UV-I 0 W/m 0,0 km/h (0 Bft)
17.12.2013 19:32 5,2 C 2,8 C 87 % 1023,1 hPa 0,0 l/m 0 min 0 min 0,0 UV-I 0 W/m 0,0 km/h (0 Bft)
17.12.2013 19:34 5,2 C 2,8 C 87 % 1023,1 hPa 0,0 l/m 0 min 0 min 0,0 UV-I 0 W/m 0,0 km/h (0 Bft)
17.12.2013 19:36 5,2 C 2,8 C 87 % 1023,0 hPa 0,0 l/m 0 min 0 min 0,0 UV-I 0 W/m 0,0 km/h (0 Bft)
17.12.2013 19:38 5,1 C 2,8 C 87 % 1023,1 hPa 0,0 l/m 0 min 0 min 0,0 UV-I 0 W/m 0,0 km/h (0 Bft)
17.12.2013 19:40 5,1 C 2,8 C 88 % 1023,0 hPa 0,0 l/m 0 min 0 min 0,0 UV-I 0 W/m 0,0 km/h (0 Bft)
17.12.2013 19:42 5,1 C 2,8 C 88 % 1023,0 hPa 0,0 l/m 0 min 0 min 0,0 UV-I 0 W/m 0,0 km/h (0 Bft)
17.12.2013 19:44 5,1 C 2,8 C 88 % 1023,0 hPa 0,0 l/m 0 min 0 min 0,0 UV-I 0 W/m 0,0 km/h (0 Bft)
17.12.2013 19:46 5,1 C 2,8 C 88 % 1023,0 hPa 0,0 l/m 0 min 0 min 0,0 UV-I 0 W/m 0,0 km/h (0 Bft)
17.12.2013 19:48 5,0 C 2,8 C 88 % 1022,9 hPa 0,0 l/m 0 min 0 min 0,0 UV-I 0 W/m 0,0 km/h (0 Bft)
17.12.2013 19:50 4,9 C 2,8 C 89 % 1023,0 hPa 0,0 l/m 0 min 0 min 0,0 UV-I 0 W/m 0,0 km/h (0 Bft)
17.12.2013 19:52 4,9 C 2,8 C 89 % 1022,9 hPa 0,0 l/m 0 min 0 min 0,0 UV-I 0 W/m 0,0 km/h (0 Bft)
17.12.2013 19:54 4,9 C 2,8 C 89 % 1022,9 hPa 0,0 l/m 0 min 0 min 0,0 UV-I 0 W/m 0,0 km/h (0 Bft)
17.12.2013 19:56 4,9 C 2,8 C 89 % 1022,8 hPa 0,0 l/m 0 min 0 min 0,0 UV-I 0 W/m 0,0 km/h (0 Bft)
17.12.2013 19:58 4,8 C 2,8 C 89 % 1022,7 hPa 0,0 l/m 0 min 0 min 0,0 UV-I 0 W/m 0,0 km/h (0 Bft)
17.12.2013 20:00 4,8 C 2,8 C 89 % 1022,8 hPa 0,0 l/m 0 min 0 min 0,0 UV-I 0 W/m 0,0 km/h (0 Bft)
17.12.2013 20:02 4,8 C 2,8 C 89 % 1022,8 hPa 0,0 l/m 0 min 0 min 0,0 UV-I 0 W/m 0,0 km/h (0 Bft)
17.12.2013 20:04 4,8 C 2,8 C 89 % 1022,7 hPa 0,0 l/m 0 min 0 min 0,0 UV-I 0 W/m 0,0 km/h (0 Bft)
17.12.2013 20:06 4,7 C 2,8 C 89 % 1022,7 hPa 0,0 l/m 0 min 0 min 0,0 UV-I 0 W/m 0,0 km/h (0 Bft)
17.12.2013 20:08 4,7 C 2,8 C 89 % 1022,6 hPa 0,0 l/m 0 min 0 min 0,0 UV-I 0 W/m 0,0 km/h (0 Bft)
17.12.2013 20:10 4,7 C 2,8 C 90 % 1022,6 hPa 0,0 l/m 0 min 0 min 0,0 UV-I 0 W/m 0,0 km/h (0 Bft)
17.12.2013 20:12 4,7 C 2,8 C 90 % 1022,5 hPa 0,0 l/m 0 min 0 min 0,0 UV-I 0 W/m 0,0 km/h (0 Bft)
17.12.2013 20:14 4,7 C 2,8 C 90 % 1022,6 hPa 0,0 l/m 0 min 0 min 0,0 UV-I 0 W/m 2,6 km/h (1 Bft)
17.12.2013 20:16 4,7 C 2,8 C 90 % 1022,5 hPa 0,0 l/m 0 min 0 min 0,0 UV-I 0 W/m 2,6 km/h (1 Bft)
17.12.2013 20:18 4,7 C 2,8 C 90 % 1022,5 hPa 0,0 l/m 0 min 0 min 0,0 UV-I 0 W/m 0,0 km/h (0 Bft)
17.12.2013 20:20 4,7 C 2,8 C 91 % 1022,5 hPa 0,0 l/m 0 min 0 min 0,0 UV-I 0 W/m 0,0 km/h (0 Bft)
17.12.2013 20:22 4,7 C 2,8 C 91 % 1022,4 hPa 0,0 l/m 0 min 0 min 0,0 UV-I 0 W/m 0,0 km/h (0 Bft)
17.12.2013 20:24 4,7 C 2,8 C 91 % 1022,4 hPa 0,0 l/m 0 min 0 min 0,0 UV-I 0 W/m 0,0 km/h (0 Bft)
17.12.2013 20:26 4,7 C 2,8 C 91 % 1022,5 hPa 0,0 l/m 0 min 0 min 0,0 UV-I 0 W/m 0,0 km/h (0 Bft)
17.12.2013 20:28 4,7 C 2,8 C 91 % 1022,5 hPa 0,0 l/m 0 min 0 min 0,0 UV-I 0 W/m 0,0 km/h (0 Bft)
17.12.2013 20:30 4,7 C 2,8 C 91 % 1022,5 hPa 0,0 l/m 0 min 0 min 0,0 UV-I 0 W/m 0,0 km/h (0 Bft)
17.12.2013 20:32 4,7 C 2,8 C 91 % 1022,5 hPa 0,0 l/m 0 min 0 min 0,0 UV-I 0 W/m 5,1 km/h (1 Bft)
17.12.2013 20:34 4,7 C 3,3 C 91 % 1022,5 hPa 0,0 l/m 0 min 0 min 0,0 UV-I 0 W/m 2,6 km/h (1 Bft)
17.12.2013 20:36 4,7 C 3,3 C 91 % 1022,6 hPa 0,0 l/m 0 min 0 min 0,0 UV-I 0 W/m 0,0 km/h (0 Bft)
17.12.2013 20:38 4,7 C 3,3 C 91 % 1022,4 hPa 0,0 l/m 0 min 0 min 0,0 UV-I 0 W/m 2,6 km/h (1 Bft)
17.12.2013 20:40 4,7 C 3,3 C 91 % 1022,5 hPa 0,0 l/m 0 min 0 min 0,0 UV-I 0 W/m 0,0 km/h (0 Bft)
17.12.2013 20:42 4,7 C 3,3 C 91 % 1022,5 hPa 0,0 l/m 0 min 0 min 0,0 UV-I 0 W/m 0,0 km/h (0 Bft)
17.12.2013 20:44 4,8 C 3,3 C 91 % 1022,4 hPa 0,0 l/m 0 min 0 min 0,0 UV-I 0 W/m 5,1 km/h (1 Bft)
17.12.2013 20:46 4,8 C 3,3 C 91 % 1022,4 hPa 0,0 l/m 0 min 0 min 0,0 UV-I 0 W/m 0,0 km/h (0 Bft)
17.12.2013 20:48 4,8 C 3,3 C 91 % 1022,4 hPa 0,0 l/m 0 min 0 min 0,0 UV-I 0 W/m 0,0 km/h (0 Bft)
17.12.2013 20:50 4,8 C 3,3 C 91 % 1022,4 hPa 0,0 l/m 0 min 0 min 0,0 UV-I 0 W/m 2,6 km/h (1 Bft)
17.12.2013 20:52 4,8 C 3,3 C 91 % 1022,2 hPa 0,0 l/m 0 min 0 min 0,0 UV-I 0 W/m 2,6 km/h (1 Bft)
17.12.2013 20:54 4,8 C 3,3 C 91 % 1022,4 hPa 0,0 l/m 0 min 0 min 0,0 UV-I 0 W/m 5,1 km/h (1 Bft)
17.12.2013 20:56 4,8 C 3,3 C 91 % 1022,4 hPa 0,0 l/m 0 min 0 min 0,0 UV-I 0 W/m 0,0 km/h (0 Bft)
17.12.2013 20:58 4,8 C 3,3 C 91 % 1022,3 hPa 0,0 l/m 0 min 0 min 0,0 UV-I 0 W/m 0,0 km/h (0 Bft)
17.12.2013 21:00 4,8 C 3,3 C 91 % 1022,3 hPa 0,0 l/m 0 min 0 min 0,0 UV-I 0 W/m 5,1 km/h (1 Bft)
17.12.2013 21:02 4,9 C 3,3 C 91 % 1022,3 hPa 0,0 l/m 0 min 0 min 0,0 UV-I 0 W/m 7,7 km/h (2 Bft)
17.12.2013 21:04 4,9 C 3,3 C 91 % 1022,3 hPa 0,0 l/m 0 min 0 min 0,0 UV-I 0 W/m 5,1 km/h (1 Bft)
17.12.2013 21:06 4,9 C 3,3 C 91 % 1022,3 hPa 0,0 l/m 0 min 0 min 0,0 UV-I 0 W/m 7,7 km/h (2 Bft)
17.12.2013 21:08 4,9 C 3,3 C 91 % 1022,3 hPa 0,0 l/m 0 min 0 min 0,0 UV-I 0 W/m 2,6 km/h (1 Bft)
17.12.2013 21:10 4,9 C 3,3 C 91 % 1022,3 hPa 0,0 l/m 0 min 0 min 0,0 UV-I 0 W/m 0,0 km/h (0 Bft)
17.12.2013 21:12 4,9 C 3,3 C 91 % 1022,3 hPa 0,0 l/m 0 min 0 min 0,0 UV-I 0 W/m 2,6 km/h (1 Bft)
17.12.2013 21:14 4,9 C 3,3 C 91 % 1022,3 hPa 0,0 l/m 0 min 0 min 0,0 UV-I 0 W/m 2,6 km/h (1 Bft)
17.12.2013 21:16 4,9 C 3,3 C 95 % 1022,2 hPa 0,0 l/m 0 min 0 min 0,0 UV-I 0 W/m 0,0 km/h (0 Bft)
17.12.2013 21:18 4,9 C 3,3 C 91 % 1022,2 hPa 0,0 l/m 0 min 0 min 0,0 UV-I 0 W/m 0,0 km/h (0 Bft)
17.12.2013 21:20 5,0 C 3,3 C 91 % 1022,2 hPa 0,0 l/m 0 min 0 min 0,0 UV-I 0 W/m 2,6 km/h (1 Bft)
17.12.2013 21:22 5,0 C 3,3 C 91 % 1022,3 hPa 0,0 l/m 0 min 0 min 0,0 UV-I 0 W/m 0,0 km/h (0 Bft)
17.12.2013 21:24 5,0 C 3,3 C 90 % 1022,3 hPa 0,0 l/m 0 min 0 min 0,0 UV-I 0 W/m 0,0 km/h (0 Bft)
17.12.2013 21:26 5,0 C 3,3 C 90 % 1022,3 hPa 0,0 l/m 0 min 0 min 0,0 UV-I 0 W/m 2,6 km/h (1 Bft)
17.12.2013 21:28 5,0 C 3,3 C 90 % 1022,4 hPa 0,0 l/m 0 min 0 min 0,0 UV-I 0 W/m 0,0 km/h (0 Bft)
17.12.2013 21:30 4,9 C 3,3 C 90 % 1022,4 hPa 0,0 l/m 0 min 0 min 0,0 UV-I 0 W/m 7,7 km/h (2 Bft)
17.12.2013 21:32 4,9 C 3,3 C 90 % 1022,3 hPa 0,0 l/m 0 min 0 min 0,0 UV-I 0 W/m 5,1 km/h (1 Bft)
17.12.2013 21:34 4,9 C 3,3 C 90 % 1022,3 hPa 0,0 l/m 0 min 0 min 0,0 UV-I 0 W/m 0,0 km/h (0 Bft)
17.12.2013 21:36 4,9 C 3,3 C 90 % 1022,2 hPa 0,0 l/m 0 min 0 min 0,0 UV-I 0 W/m 0,0 km/h (0 Bft)
17.12.2013 21:38 4,9 C 3,3 C 90 % 1022,2 hPa 0,0 l/m 0 min 0 min 0,0 UV-I 0 W/m 2,6 km/h (1 Bft)
17.12.2013 21:40 4,9 C 3,3 C 90 % 1022,2 hPa 0,0 l/m 0 min 0 min 0,0 UV-I 0 W/m 0,0 km/h (0 Bft)
17.12.2013 21:42 4,9 C 3,3 C 90 % 1022,2 hPa 0,0 l/m 0 min 0 min 0,0 UV-I 0 W/m 0,0 km/h (0 Bft)
17.12.2013 21:44 4,9 C 3,3 C 90 % 1022,3 hPa 0,0 l/m 0 min 0 min 0,0 UV-I 0 W/m 0,0 km/h (0 Bft)
17.12.2013 21:46 4,9 C 3,3 C 90 % 1022,4 hPa 0,0 l/m 0 min 0 min 0,0 UV-I 0 W/m 0,0 km/h (0 Bft)
17.12.2013 21:48 4,9 C 3,3 C 90 % 1022,3 hPa 0,0 l/m 0 min 0 min 0,0 UV-I 0 W/m 0,0 km/h (0 Bft)
17.12.2013 21:50 4,9 C 3,3 C 90 % 1022,3 hPa 0,0 l/m 0 min 0 min 0,0 UV-I 0 W/m 0,0 km/h (0 Bft)
17.12.2013 21:52 4,9 C 3,3 C 90 % 1022,2 hPa 0,0 l/m 0 min 0 min 0,0 UV-I 0 W/m 2,6 km/h (1 Bft)
17.12.2013 21:54 4,9 C 3,3 C 90 % 1022,2 hPa 0,0 l/m 0 min 0 min 0,0 UV-I 0 W/m 0,0 km/h (0 Bft)
17.12.2013 21:56 4,9 C 3,3 C 90 % 1022,2 hPa 0,0 l/m 0 min 0 min 0,0 UV-I 0 W/m 0,0 km/h (0 Bft)
17.12.2013 21:58 4,9 C 3,3 C 90 % 1022,2 hPa 0,0 l/m 0 min 0 min 0,0 UV-I 0 W/m 0,0 km/h (0 Bft)
17.12.2013 22:00 4,9 C 3,3 C 90 % 1022,2 hPa 0,0 l/m 0 min 0 min 0,0 UV-I 0 W/m 0,0 km/h (0 Bft)
17.12.2013 22:02 4,8 C 3,3 C 90 % 1022,3 hPa 0,0 l/m 0 min 0 min 0,0 UV-I 0 W/m 0,0 km/h (0 Bft)
17.12.2013 22:04 4,8 C 2,8 C 90 % 1022,2 hPa 0,0 l/m 0 min 0 min 0,0 UV-I 0 W/m 0,0 km/h (0 Bft)
17.12.2013 22:06 4,8 C 2,8 C 90 % 1022,2 hPa 0,0 l/m 0 min 0 min 0,0 UV-I 0 W/m 0,0 km/h (0 Bft)
17.12.2013 22:08 4,8 C 2,8 C 90 % 1022,2 hPa 0,0 l/m 0 min 0 min 0,0 UV-I 0 W/m 0,0 km/h (0 Bft)
17.12.2013 22:10 4,8 C 2,8 C 90 % 1022,1 hPa 0,0 l/m 0 min 0 min 0,0 UV-I 0 W/m 0,0 km/h (0 Bft)
17.12.2013 22:12 4,8 C 2,8 C 90 % 1022,1 hPa 0,0 l/m 0 min 0 min 0,0 UV-I 0 W/m 0,0 km/h (0 Bft)
17.12.2013 22:14 4,7 C 2,8 C 90 % 1022,1 hPa 0,0 l/m 0 min 0 min 0,0 UV-I 0 W/m 0,0 km/h (0 Bft)
17.12.2013 22:16 4,7 C 2,8 C 90 % 1022,1 hPa 0,0 l/m 0 min 0 min 0,0 UV-I 0 W/m 0,0 km/h (0 Bft)
17.12.2013 22:18 4,7 C 2,8 C 90 % 1022,2 hPa 0,0 l/m 0 min 0 min 0,0 UV-I 0 W/m 0,0 km/h (0 Bft)
17.12.2013 22:20 4,7 C 2,8 C 90 % 1022,0 hPa 0,0 l/m 0 min 0 min 0,0 UV-I 0 W/m 0,0 km/h (0 Bft)
17.12.2013 22:22 4,7 C 2,8 C 90 % 1022,0 hPa 0,0 l/m 0 min 0 min 0,0 UV-I 0 W/m 0,0 km/h (0 Bft)
17.12.2013 22:24 4,7 C 2,8 C 90 % 1022,1 hPa 0,0 l/m 0 min 0 min 0,0 UV-I 0 W/m 0,0 km/h (0 Bft)
17.12.2013 22:26 4,6 C 2,8 C 90 % 1022,0 hPa 0,0 l/m 0 min 0 min 0,0 UV-I 0 W/m 0,0 km/h (0 Bft)
17.12.2013 22:28 4,6 C 2,8 C 90 % 1022,1 hPa 0,0 l/m 0 min 0 min 0,0 UV-I 0 W/m 0,0 km/h (0 Bft)
17.12.2013 22:30 4,6 C 2,8 C 90 % 1022,0 hPa 0,0 l/m 0 min 0 min 0,0 UV-I 0 W/m 0,0 km/h (0 Bft)
17.12.2013 22:32 4,6 C 2,8 C 90 % 1022,0 hPa 0,0 l/m 0 min 0 min 0,0 UV-I 0 W/m 0,0 km/h (0 Bft)
17.12.2013 22:34 4,6 C 2,8 C 90 % 1022,0 hPa 0,0 l/m 0 min 0 min 0,0 UV-I 0 W/m 0,0 km/h (0 Bft)
17.12.2013 22:36 4,5 C 2,8 C 90 % 1021,9 hPa 0,0 l/m 0 min 0 min 0,0 UV-I 0 W/m 0,0 km/h (0 Bft)
17.12.2013 22:38 4,5 C 2,8 C 90 % 1021,9 hPa 0,0 l/m 0 min 0 min 0,0 UV-I 0 W/m 0,0 km/h (0 Bft)
17.12.2013 22:40 4,5 C 2,8 C 90 % 1021,8 hPa 0,0 l/m 0 min 0 min 0,0 UV-I 0 W/m 0,0 km/h (0 Bft)
17.12.2013 22:42 4,4 C 2,8 C 90 % 1021,8 hPa 0,0 l/m 0 min 0 min 0,0 UV-I 0 W/m 0,0 km/h (0 Bft)
17.12.2013 22:44 4,4 C 2,8 C 90 % 1021,8 hPa 0,0 l/m 0 min 0 min 0,0 UV-I 0 W/m 0,0 km/h (0 Bft)
17.12.2013 22:46 4,4 C 2,8 C 90 % 1021,8 hPa 0,0 l/m 0 min 0 min 0,0 UV-I 0 W/m 0,0 km/h (0 Bft)
17.12.2013 22:48 4,4 C 2,8 C 90 % 1021,7 hPa 0,0 l/m 0 min 0 min 0,0 UV-I 0 W/m 0,0 km/h (0 Bft)
17.12.2013 22:50 4,3 C 2,8 C 90 % 1021,7 hPa 0,0 l/m 0 min 0 min 0,0 UV-I 0 W/m 0,0 km/h (0 Bft)
17.12.2013 22:52 4,3 C 2,8 C 90 % 1021,7 hPa 0,0 l/m 0 min 0 min 0,0 UV-I 0 W/m 0,0 km/h (0 Bft)
17.12.2013 22:54 4,3 C 2,8 C 90 % 1021,8 hPa 0,0 l/m 0 min 0 min 0,0 UV-I 0 W/m 2,6 km/h (1 Bft)
17.12.2013 22:56 4,3 C 2,8 C 90 % 1021,8 hPa 0,0 l/m 0 min 0 min 0,0 UV-I 0 W/m 0,0 km/h (0 Bft)
17.12.2013 22:58 4,3 C 2,8 C 90 % 1021,8 hPa 0,0 l/m 0 min 0 min 0,0 UV-I 0 W/m 0,0 km/h (0 Bft)
17.12.2013 23:00 4,2 C 2,8 C 90 % 1021,8 hPa 0,0 l/m 0 min 0 min 0,0 UV-I 0 W/m 2,6 km/h (1 Bft)
17.12.2013 23:02 4,2 C 2,8 C 90 % 1021,8 hPa 0,0 l/m 0 min 0 min 0,0 UV-I 0 W/m 7,7 km/h (2 Bft)
17.12.2013 23:04 4,2 C 2,8 C 90 % 1021,8 hPa 0,0 l/m 0 min 0 min 0,0 UV-I 0 W/m 0,0 km/h (0 Bft)
17.12.2013 23:06 4,2 C 2,8 C 90 % 1021,7 hPa 0,0 l/m 0 min 0 min 0,0 UV-I 0 W/m 2,6 km/h (1 Bft)
17.12.2013 23:08 4,2 C 2,8 C 95 % 1021,7 hPa 0,0 l/m 0 min 0 min 0,0 UV-I 0 W/m 7,7 km/h (2 Bft)
17.12.2013 23:10 4,2 C 2,8 C 90 % 1021,8 hPa 0,0 l/m 0 min 0 min 0,0 UV-I 0 W/m 7,7 km/h (2 Bft)
17.12.2013 23:12 4,2 C 2,8 C 90 % 1021,8 hPa 0,0 l/m 0 min 0 min 0,0 UV-I 0 W/m 10,3 km/h (2 Bft)
17.12.2013 23:14 4,1 C 2,8 C 90 % 1021,7 hPa 0,0 l/m 0 min 0 min 0,0 UV-I 0 W/m 7,7 km/h (2 Bft)
17.12.2013 23:16 4,1 C 2,8 C 90 % 1021,7 hPa 0,0 l/m 0 min 0 min 0,0 UV-I 0 W/m 7,7 km/h (2 Bft)
17.12.2013 23:18 4,1 C 2,8 C 90 % 1021,6 hPa 0,0 l/m 0 min 0 min 0,0 UV-I 0 W/m 12,9 km/h (3 Bft)
17.12.2013 23:20 4,1 C 2,8 C 90 % 1021,6 hPa 0,0 l/m 0 min 0 min 0,0 UV-I 0 W/m 10,3 km/h (2 Bft)
17.12.2013 23:22 4,1 C 2,8 C 90 % 1021,6 hPa 0,0 l/m 0 min 0 min 0,0 UV-I 0 W/m 5,1 km/h (1 Bft)
17.12.2013 23:24 4,1 C 2,8 C 90 % 1021,6 hPa 0,0 l/m 0 min 0 min 0,0 UV-I 0 W/m 7,7 km/h (2 Bft)
17.12.2013 23:26 4,1 C 2,8 C 91 % 1021,6 hPa 0,0 l/m 0 min 0 min 0,0 UV-I 0 W/m 10,3 km/h (2 Bft)
17.12.2013 23:28 4,1 C 2,8 C 91 % 1021,6 hPa 0,0 l/m 0 min 0 min 0,0 UV-I 0 W/m 12,9 km/h (3 Bft)
17.12.2013 23:30 4,1 C 2,8 C 91 % 1021,5 hPa 0,0 l/m 0 min 0 min 0,0 UV-I 0 W/m 5,1 km/h (1 Bft)
17.12.2013 23:32 4,1 C 2,8 C 91 % 1021,5 hPa 0,0 l/m 0 min 0 min 0,0 UV-I 0 W/m 10,3 km/h (2 Bft)
17.12.2013 23:34 4,1 C 2,8 C 91 % 1021,5 hPa 0,0 l/m 0 min 0 min 0,0 UV-I 0 W/m 7,7 km/h (2 Bft)
17.12.2013 23:36 4,1 C 2,8 C 90 % 1021,5 hPa 0,0 l/m 0 min 0 min 0,0 UV-I 0 W/m 10,3 km/h (2 Bft)
17.12.2013 23:38 4,1 C 2,8 C 90 % 1021,5 hPa 0,0 l/m 0 min 0 min 0,0 UV-I 0 W/m 2,6 km/h (1 Bft)
17.12.2013 23:40 4,1 C 2,8 C 91 % 1021,5 hPa 0,0 l/m 0 min 0 min 0,0 UV-I 0 W/m 2,6 km/h (1 Bft)
17.12.2013 23:42 4,1 C 2,8 C 90 % 1021,4 hPa 0,0 l/m 0 min 0 min 0,0 UV-I 0 W/m 0,0 km/h (0 Bft)
17.12.2013 23:44 4,1 C 2,8 C 90 % 1021,4 hPa 0,0 l/m 0 min 0 min 0,0 UV-I 0 W/m 0,0 km/h (0 Bft)
17.12.2013 23:46 4,1 C 2,8 C 90 % 1021,4 hPa 0,0 l/m 0 min 0 min 0,0 UV-I 0 W/m 0,0 km/h (0 Bft)
17.12.2013 23:48 4,1 C 2,8 C 90 % 1021,4 hPa 0,0 l/m 0 min 0 min 0,0 UV-I 0 W/m 7,7 km/h (2 Bft)
17.12.2013 23:50 4,1 C 2,8 C 90 % 1021,4 hPa 0,0 l/m 0 min 0 min 0,0 UV-I 0 W/m 0,0 km/h (0 Bft)
17.12.2013 23:52 4,1 C 2,8 C 90 % 1021,4 hPa 0,0 l/m 0 min 0 min 0,0 UV-I 0 W/m 0,0 km/h (0 Bft)
17.12.2013 23:54 4,2 C 2,8 C 90 % 1021,4 hPa 0,0 l/m 0 min 0 min 0,0 UV-I 0 W/m 0,0 km/h (0 Bft)
17.12.2013 23:56 4,2 C 2,8 C 90 % 1021,4 hPa 0,0 l/m 0 min 0 min 0,0 UV-I 0 W/m 0,0 km/h (0 Bft)
17.12.2013 23:58 4,2 C 2,8 C 90 % 1021,4 hPa 0,0 l/m 0 min 0 min 0,0 UV-I 0 W/m 0,0 km/h (0 Bft)
_ Min-Zeit 08:44 05:56 13:38 23:42 - - - - - 00:34
Minimum _ 3,3 C 1,7 C 77 % 1021,4 hPa - - - - - 0,0 km/h (0 Bft)
_ Max-Zeit 13:56 13:34 21:16 10:36 00:00 11:12 00:00 00:00 11:14 01:40
Maximum _ 9,8 C 8,3 C 95 % 1024,2 hPa 0,0 l/m 2 min 0 min 0,0 UV-I 148 W/m 20,6 km/h
S-SO (4 Bft)
Durchschnitt _ 5,8 C 4,0 C 85 % 1022,9 hPa #0,0 l/m #4 min. #0 min. 0,0 UV-I 53 W/m 3,9 km/h (1 Bft)
© 2013 W. Hausmann